| State | Missouri | Latest | Low (573 cfs) | |
| River | Black River | Rating | Observed | Estimated |
| Updated | 2026-05-10 16:30 (40 minutes ago) | Flood - The river is flooding. Obstacles can be treacherous or deadly. The river should be avoided at this stage for casual trips and definitely for the inexperienced. Trips should be attempted only with protective gear and equipment.Flood | (none) | 3539 |
| Discharge | 573 cfs (median: 1360 cfs) | High - The river is high and potentially dangerous, especially for the young and / or inexperienced. Normal stream obstacles are sometimes difficult to navigate. Extended distances can be attempted, but canoe travel may not be advisable.High | (none) | 1266 |
| Height | 2.84 feet | Good - Conditions are ideal for a canoe or kayak. Boats typically will drag on fewer than one-quarter of riffles, if at all, and portages are unnecessary or rare. Normal float lengths can be attempted without a problem.Good | (none) | 716 |
| Trend | Steady (falling over 24 hours) | Low - River is low but can still be floated. Some riffles are okay but most come with significant dragging and might need a portage. Float lengths should be reduced to accommodate low flow, dragging, and portages.Low | (none) | 428 |
| USGS | USGS Site ( Duck Duck Go Maps) | Poor - River is too low to float comfortably. Most or all riffles will drag or must be portaged and some obstacles (such as slick shelf rock) cause undue problems. Avoid the river at this stage for casual paddling trips.Poor | (none) | 221 |
| Date | Start | End | Distance | Condition | Discharge | Height | Fishing | Details |
|---|
A total of 0 rows are displayed.
BLG - Bluegill
CCF - Channel Catfish
CP - Chain Pickerel
FWD - Freshwater Drum
GSF - Green Sunfish
KSB - Kentucky Spotted Bass
LMB - Largemouth Bass
LSF - Longear Sunfish
RB - Rock Bass / Goggle Eye
RSF - Redear Sunfish
RT - Rainbow Trout
SMB - Smallmouth Bass
WB - White Bass
WF - Whitefish
WL - WalleyeThe classic River Trips application is still available for use. It is updated with the new system using a data retrofit. It is no longer maintained. The original River Trips application is no longer updated (as of 1 Dec 2016) but can be checked for errors or for the condition of the data before it was converted to the new system.
| Observation | Height | Discharge | Maximum Discharge | Minimum Discharge | Mean Discharge | P05 | P10 | P20 | P25 | P50 (Median) | P75 | P80 | P90 | P95 |
|---|---|---|---|---|---|---|---|---|---|---|---|---|---|---|
| 2026-05-10 16:30 | 2.84 | 573 | 4840 (2017) | 230 (1981) | 1770 | 308 | 358 | 496 | 534 | 1360 | 2990 | 3280 | 3530 | 3650 |
| 2026-05-10 15:30 | 2.84 | 573 | 4840 (2017) | 230 (1981) | 1770 | 308 | 358 | 496 | 534 | 1360 | 2990 | 3280 | 3530 | 3650 |
| 2026-05-10 14:30 | 2.84 | 573 | 4840 (2017) | 230 (1981) | 1770 | 308 | 358 | 496 | 534 | 1360 | 2990 | 3280 | 3530 | 3650 |
| 2026-05-10 13:30 | 2.84 | 573 | 4840 (2017) | 230 (1981) | 1770 | 308 | 358 | 496 | 534 | 1360 | 2990 | 3280 | 3530 | 3650 |
| 2026-05-10 12:30 | 2.86 | 582 | 4840 (2017) | 230 (1981) | 1770 | 308 | 358 | 496 | 534 | 1360 | 2990 | 3280 | 3530 | 3650 |
| 2026-05-10 11:30 | 2.85 | 578 | 4840 (2017) | 230 (1981) | 1770 | 308 | 358 | 496 | 534 | 1360 | 2990 | 3280 | 3530 | 3650 |
| 2026-05-10 10:30 | 2.86 | 582 | 4840 (2017) | 230 (1981) | 1770 | 308 | 358 | 496 | 534 | 1360 | 2990 | 3280 | 3530 | 3650 |
| 2026-05-10 09:30 | 2.85 | 578 | 4840 (2017) | 230 (1981) | 1770 | 308 | 358 | 496 | 534 | 1360 | 2990 | 3280 | 3530 | 3650 |
| 2026-05-10 08:30 | 2.85 | 578 | 4840 (2017) | 230 (1981) | 1770 | 308 | 358 | 496 | 534 | 1360 | 2990 | 3280 | 3530 | 3650 |
| 2026-05-10 07:30 | 2.85 | 578 | 4840 (2017) | 230 (1981) | 1770 | 308 | 358 | 496 | 534 | 1360 | 2990 | 3280 | 3530 | 3650 |
| 2026-05-10 06:30 | 2.86 | 582 | 4840 (2017) | 230 (1981) | 1770 | 308 | 358 | 496 | 534 | 1360 | 2990 | 3280 | 3530 | 3650 |
| 2026-05-10 05:30 | 2.85 | 578 | 4840 (2017) | 230 (1981) | 1770 | 308 | 358 | 496 | 534 | 1360 | 2990 | 3280 | 3530 | 3650 |
| 2026-05-10 04:30 | 2.85 | 578 | 4840 (2017) | 230 (1981) | 1770 | 308 | 358 | 496 | 534 | 1360 | 2990 | 3280 | 3530 | 3650 |
| 2026-05-10 03:30 | 2.85 | 578 | 4840 (2017) | 230 (1981) | 1770 | 308 | 358 | 496 | 534 | 1360 | 2990 | 3280 | 3530 | 3650 |
| 2026-05-10 02:30 | 2.86 | 582 | 4840 (2017) | 230 (1981) | 1770 | 308 | 358 | 496 | 534 | 1360 | 2990 | 3280 | 3530 | 3650 |
| 2026-05-10 01:30 | 2.85 | 578 | 4840 (2017) | 230 (1981) | 1770 | 308 | 358 | 496 | 534 | 1360 | 2990 | 3280 | 3530 | 3650 |
| 2026-05-10 00:30 | 2.86 | 582 | 4840 (2017) | 230 (1981) | 1770 | 308 | 358 | 496 | 534 | 1360 | 2990 | 3280 | 3530 | 3650 |
| 2026-05-09 23:30 | 2.85 | 578 | 4840 (2017) | 230 (1981) | 1770 | 308 | 358 | 496 | 534 | 1360 | 2990 | 3280 | 3530 | 3650 |
| 2026-05-09 22:30 | 2.87 | 587 | 4880 (2017) | 194 (1980) | 1760 | 303 | 362 | 504 | 571 | 1400 | 3020 | 3170 | 3520 | 3650 |
| 2026-05-09 21:30 | 2.85 | 578 | 4880 (2017) | 194 (1980) | 1760 | 303 | 362 | 504 | 571 | 1400 | 3020 | 3170 | 3520 | 3650 |
| 2026-05-09 20:30 | 2.85 | 578 | 4880 (2017) | 194 (1980) | 1760 | 303 | 362 | 504 | 571 | 1400 | 3020 | 3170 | 3520 | 3650 |
| 2026-05-09 19:30 | 2.86 | 582 | 4880 (2017) | 194 (1980) | 1760 | 303 | 362 | 504 | 571 | 1400 | 3020 | 3170 | 3520 | 3650 |
| 2026-05-09 18:30 | 2.85 | 578 | 4880 (2017) | 194 (1980) | 1760 | 303 | 362 | 504 | 571 | 1400 | 3020 | 3170 | 3520 | 3650 |
| 2026-05-09 17:30 | 2.86 | 582 | 4880 (2017) | 194 (1980) | 1760 | 303 | 362 | 504 | 571 | 1400 | 3020 | 3170 | 3520 | 3650 |
| 2026-05-09 16:30 | 2.86 | 582 | 4880 (2017) | 194 (1980) | 1760 | 303 | 362 | 504 | 571 | 1400 | 3020 | 3170 | 3520 | 3650 |
| 2026-05-09 15:30 | 2.87 | 587 | 4880 (2017) | 194 (1980) | 1760 | 303 | 362 | 504 | 571 | 1400 | 3020 | 3170 | 3520 | 3650 |
| 2026-05-09 14:30 | 2.87 | 587 | 4880 (2017) | 194 (1980) | 1760 | 303 | 362 | 504 | 571 | 1400 | 3020 | 3170 | 3520 | 3650 |
| 2026-05-09 13:30 | 2.86 | 582 | 4880 (2017) | 194 (1980) | 1760 | 303 | 362 | 504 | 571 | 1400 | 3020 | 3170 | 3520 | 3650 |
| 2026-05-09 12:30 | 2.87 | 587 | 4880 (2017) | 194 (1980) | 1760 | 303 | 362 | 504 | 571 | 1400 | 3020 | 3170 | 3520 | 3650 |
| 2026-05-09 11:30 | 2.87 | 587 | 4880 (2017) | 194 (1980) | 1760 | 303 | 362 | 504 | 571 | 1400 | 3020 | 3170 | 3520 | 3650 |
| 2026-05-09 10:30 | 2.88 | 591 | 4880 (2017) | 194 (1980) | 1760 | 303 | 362 | 504 | 571 | 1400 | 3020 | 3170 | 3520 | 3650 |
| 2026-05-09 09:30 | 2.87 | 587 | 4880 (2017) | 194 (1980) | 1760 | 303 | 362 | 504 | 571 | 1400 | 3020 | 3170 | 3520 | 3650 |
| 2026-05-09 08:30 | 2.87 | 587 | 4880 (2017) | 194 (1980) | 1760 | 303 | 362 | 504 | 571 | 1400 | 3020 | 3170 | 3520 | 3650 |
| 2026-05-09 07:30 | 2.87 | 587 | 4880 (2017) | 194 (1980) | 1760 | 303 | 362 | 504 | 571 | 1400 | 3020 | 3170 | 3520 | 3650 |
| 2026-05-09 06:30 | 2.88 | 591 | 4880 (2017) | 194 (1980) | 1760 | 303 | 362 | 504 | 571 | 1400 | 3020 | 3170 | 3520 | 3650 |
| 2026-05-09 05:30 | 2.88 | 591 | 4880 (2017) | 194 (1980) | 1760 | 303 | 362 | 504 | 571 | 1400 | 3020 | 3170 | 3520 | 3650 |
| 2026-05-09 04:30 | 2.89 | 596 | 4880 (2017) | 194 (1980) | 1760 | 303 | 362 | 504 | 571 | 1400 | 3020 | 3170 | 3520 | 3650 |
| 2026-05-09 03:30 | 2.88 | 591 | 4880 (2017) | 194 (1980) | 1760 | 303 | 362 | 504 | 571 | 1400 | 3020 | 3170 | 3520 | 3650 |
| 2026-05-09 02:30 | 2.88 | 591 | 4880 (2017) | 194 (1980) | 1760 | 303 | 362 | 504 | 571 | 1400 | 3020 | 3170 | 3520 | 3650 |
| 2026-05-09 01:30 | 2.90 | 600 | 4880 (2017) | 194 (1980) | 1760 | 303 | 362 | 504 | 571 | 1400 | 3020 | 3170 | 3520 | 3650 |
| 2026-05-09 00:30 | 2.89 | 596 | 4880 (2017) | 194 (1980) | 1760 | 303 | 362 | 504 | 571 | 1400 | 3020 | 3170 | 3520 | 3650 |
| 2026-05-08 23:30 | 2.89 | 596 | 4880 (2017) | 194 (1980) | 1760 | 303 | 362 | 504 | 571 | 1400 | 3020 | 3170 | 3520 | 3650 |
| 2026-05-08 22:30 | 2.89 | 596 | 5250 (2017) | 193 (1980) | 1780 | 306 | 354 | 532 | 586 | 1230 | 3030 | 3240 | 3590 | 3670 |
| 2026-05-08 21:30 | 2.89 | 596 | 5250 (2017) | 193 (1980) | 1780 | 306 | 354 | 532 | 586 | 1230 | 3030 | 3240 | 3590 | 3670 |
| 2026-05-08 20:30 | 2.89 | 596 | 5250 (2017) | 193 (1980) | 1780 | 306 | 354 | 532 | 586 | 1230 | 3030 | 3240 | 3590 | 3670 |
| 2026-05-08 19:30 | 2.90 | 600 | 5250 (2017) | 193 (1980) | 1780 | 306 | 354 | 532 | 586 | 1230 | 3030 | 3240 | 3590 | 3670 |
| 2026-05-08 18:30 | 2.91 | 605 | 5250 (2017) | 193 (1980) | 1780 | 306 | 354 | 532 | 586 | 1230 | 3030 | 3240 | 3590 | 3670 |
| 2026-05-08 17:30 | 2.93 | 614 | 5250 (2017) | 193 (1980) | 1780 | 306 | 354 | 532 | 586 | 1230 | 3030 | 3240 | 3590 | 3670 |
| 2026-05-08 16:30 | 2.95 | 623 | 5250 (2017) | 193 (1980) | 1780 | 306 | 354 | 532 | 586 | 1230 | 3030 | 3240 | 3590 | 3670 |
| 2026-05-08 15:30 | 2.97 | 632 | 5250 (2017) | 193 (1980) | 1780 | 306 | 354 | 532 | 586 | 1230 | 3030 | 3240 | 3590 | 3670 |
| 2026-05-08 14:30 | 3.00 | 646 | 5250 (2017) | 193 (1980) | 1780 | 306 | 354 | 532 | 586 | 1230 | 3030 | 3240 | 3590 | 3670 |
| 2026-05-08 13:30 | 3.04 | 665 | 5250 (2017) | 193 (1980) | 1780 | 306 | 354 | 532 | 586 | 1230 | 3030 | 3240 | 3590 | 3670 |
| 2026-05-08 12:30 | 3.08 | 684 | 5250 (2017) | 193 (1980) | 1780 | 306 | 354 | 532 | 586 | 1230 | 3030 | 3240 | 3590 | 3670 |
| 2026-05-08 11:30 | 3.12 | 704 | 5250 (2017) | 193 (1980) | 1780 | 306 | 354 | 532 | 586 | 1230 | 3030 | 3240 | 3590 | 3670 |
| 2026-05-08 10:30 | 3.16 | 723 | 5250 (2017) | 193 (1980) | 1780 | 306 | 354 | 532 | 586 | 1230 | 3030 | 3240 | 3590 | 3670 |
| 2026-05-08 09:30 | 3.18 | 733 | 5250 (2017) | 193 (1980) | 1780 | 306 | 354 | 532 | 586 | 1230 | 3030 | 3240 | 3590 | 3670 |
| 2026-05-08 08:30 | 3.17 | 728 | 5250 (2017) | 193 (1980) | 1780 | 306 | 354 | 532 | 586 | 1230 | 3030 | 3240 | 3590 | 3670 |
| 2026-05-08 07:30 | 3.18 | 733 | 5250 (2017) | 193 (1980) | 1780 | 306 | 354 | 532 | 586 | 1230 | 3030 | 3240 | 3590 | 3670 |
| 2026-05-08 06:30 | 3.19 | 738 | 5250 (2017) | 193 (1980) | 1780 | 306 | 354 | 532 | 586 | 1230 | 3030 | 3240 | 3590 | 3670 |
| 2026-05-08 05:30 | 3.17 | 728 | 5250 (2017) | 193 (1980) | 1780 | 306 | 354 | 532 | 586 | 1230 | 3030 | 3240 | 3590 | 3670 |
| 2026-05-08 04:30 | 3.18 | 733 | 5250 (2017) | 193 (1980) | 1780 | 306 | 354 | 532 | 586 | 1230 | 3030 | 3240 | 3590 | 3670 |
| 2026-05-08 03:30 | 3.18 | 733 | 5250 (2017) | 193 (1980) | 1780 | 306 | 354 | 532 | 586 | 1230 | 3030 | 3240 | 3590 | 3670 |
| 2026-05-08 02:30 | 3.18 | 733 | 5250 (2017) | 193 (1980) | 1780 | 306 | 354 | 532 | 586 | 1230 | 3030 | 3240 | 3590 | 3670 |
| 2026-05-08 01:30 | 3.18 | 733 | 5250 (2017) | 193 (1980) | 1780 | 306 | 354 | 532 | 586 | 1230 | 3030 | 3240 | 3590 | 3670 |
| 2026-05-08 00:30 | 3.17 | 728 | 5250 (2017) | 193 (1980) | 1780 | 306 | 354 | 532 | 586 | 1230 | 3030 | 3240 | 3590 | 3670 |
| 2026-05-07 23:30 | 3.18 | 733 | 5250 (2017) | 193 (1980) | 1780 | 306 | 354 | 532 | 586 | 1230 | 3030 | 3240 | 3590 | 3670 |
| 2026-05-07 22:30 | 3.17 | 728 | 6070 (2017) | 198 (1980) | 1810 | 319 | 345 | 540 | 628 | 1280 | 3180 | 3240 | 3480 | 3650 |
| 2026-05-07 21:30 | 3.17 | 728 | 6070 (2017) | 198 (1980) | 1810 | 319 | 345 | 540 | 628 | 1280 | 3180 | 3240 | 3480 | 3650 |
| 2026-05-07 20:30 | 3.18 | 733 | 6070 (2017) | 198 (1980) | 1810 | 319 | 345 | 540 | 628 | 1280 | 3180 | 3240 | 3480 | 3650 |
| 2026-05-07 19:30 | 3.17 | 728 | 6070 (2017) | 198 (1980) | 1810 | 319 | 345 | 540 | 628 | 1280 | 3180 | 3240 | 3480 | 3650 |
| 2026-05-07 18:30 | 3.18 | 733 | 6070 (2017) | 198 (1980) | 1810 | 319 | 345 | 540 | 628 | 1280 | 3180 | 3240 | 3480 | 3650 |
| 2026-05-07 17:30 | 3.17 | 728 | 6070 (2017) | 198 (1980) | 1810 | 319 | 345 | 540 | 628 | 1280 | 3180 | 3240 | 3480 | 3650 |
| 2026-05-07 16:30 | 3.17 | 728 | 6070 (2017) | 198 (1980) | 1810 | 319 | 345 | 540 | 628 | 1280 | 3180 | 3240 | 3480 | 3650 |
| 2026-05-07 15:30 | 3.18 | 733 | 6070 (2017) | 198 (1980) | 1810 | 319 | 345 | 540 | 628 | 1280 | 3180 | 3240 | 3480 | 3650 |
| 2026-05-07 14:30 | 3.18 | 733 | 6070 (2017) | 198 (1980) | 1810 | 319 | 345 | 540 | 628 | 1280 | 3180 | 3240 | 3480 | 3650 |
| 2026-05-07 13:30 | 3.18 | 733 | 6070 (2017) | 198 (1980) | 1810 | 319 | 345 | 540 | 628 | 1280 | 3180 | 3240 | 3480 | 3650 |
| 2026-05-07 12:30 | 3.18 | 733 | 6070 (2017) | 198 (1980) | 1810 | 319 | 345 | 540 | 628 | 1280 | 3180 | 3240 | 3480 | 3650 |
| 2026-05-07 11:30 | 3.17 | 728 | 6070 (2017) | 198 (1980) | 1810 | 319 | 345 | 540 | 628 | 1280 | 3180 | 3240 | 3480 | 3650 |
| 2026-05-07 10:30 | 3.18 | 733 | 6070 (2017) | 198 (1980) | 1810 | 319 | 345 | 540 | 628 | 1280 | 3180 | 3240 | 3480 | 3650 |
| 2026-05-07 09:30 | 3.17 | 728 | 6070 (2017) | 198 (1980) | 1810 | 319 | 345 | 540 | 628 | 1280 | 3180 | 3240 | 3480 | 3650 |
| 2026-05-07 08:30 | 3.18 | 733 | 6070 (2017) | 198 (1980) | 1810 | 319 | 345 | 540 | 628 | 1280 | 3180 | 3240 | 3480 | 3650 |
| 2026-05-07 07:30 | 3.18 | 733 | 6070 (2017) | 198 (1980) | 1810 | 319 | 345 | 540 | 628 | 1280 | 3180 | 3240 | 3480 | 3650 |
| 2026-05-07 06:30 | 3.19 | 738 | 6070 (2017) | 198 (1980) | 1810 | 319 | 345 | 540 | 628 | 1280 | 3180 | 3240 | 3480 | 3650 |
| 2026-05-07 05:30 | 3.18 | 733 | 6070 (2017) | 198 (1980) | 1810 | 319 | 345 | 540 | 628 | 1280 | 3180 | 3240 | 3480 | 3650 |
| 2026-05-07 04:30 | 3.17 | 728 | 6070 (2017) | 198 (1980) | 1810 | 319 | 345 | 540 | 628 | 1280 | 3180 | 3240 | 3480 | 3650 |
| 2026-05-07 03:30 | 3.17 | 728 | 6070 (2017) | 198 (1980) | 1810 | 319 | 345 | 540 | 628 | 1280 | 3180 | 3240 | 3480 | 3650 |
| 2026-05-07 02:30 | 3.17 | 728 | 6070 (2017) | 198 (1980) | 1810 | 319 | 345 | 540 | 628 | 1280 | 3180 | 3240 | 3480 | 3650 |
| 2026-05-07 01:30 | 3.18 | 733 | 6070 (2017) | 198 (1980) | 1810 | 319 | 345 | 540 | 628 | 1280 | 3180 | 3240 | 3480 | 3650 |
| 2026-05-07 00:30 | 3.17 | 728 | 6070 (2017) | 198 (1980) | 1810 | 319 | 345 | 540 | 628 | 1280 | 3180 | 3240 | 3480 | 3650 |
| 2026-05-06 23:30 | 3.17 | 728 | 6070 (2017) | 198 (1980) | 1810 | 319 | 345 | 540 | 628 | 1280 | 3180 | 3240 | 3480 | 3650 |
| 2026-05-06 22:30 | 3.17 | 728 | 6420 (2017) | 216 (1980) | 1840 | 293 | 357 | 576 | 628 | 1340 | 3100 | 3210 | 3550 | 3940 |
| 2026-05-06 21:30 | 3.16 | 723 | 6420 (2017) | 216 (1980) | 1840 | 293 | 357 | 576 | 628 | 1340 | 3100 | 3210 | 3550 | 3940 |
| 2026-05-06 20:30 | 3.16 | 723 | 6420 (2017) | 216 (1980) | 1840 | 293 | 357 | 576 | 628 | 1340 | 3100 | 3210 | 3550 | 3940 |
| 2026-05-06 19:30 | 3.14 | 713 | 6420 (2017) | 216 (1980) | 1840 | 293 | 357 | 576 | 628 | 1340 | 3100 | 3210 | 3550 | 3940 |
| 2026-05-06 18:30 | 3.14 | 713 | 6420 (2017) | 216 (1980) | 1840 | 293 | 357 | 576 | 628 | 1340 | 3100 | 3210 | 3550 | 3940 |
| 2026-05-06 17:30 | 3.12 | 704 | 6420 (2017) | 216 (1980) | 1840 | 293 | 357 | 576 | 628 | 1340 | 3100 | 3210 | 3550 | 3940 |
| 2026-05-06 16:30 | 3.11 | 699 | 6420 (2017) | 216 (1980) | 1840 | 293 | 357 | 576 | 628 | 1340 | 3100 | 3210 | 3550 | 3940 |
| 2026-05-06 15:30 | 3.07 | 679 | 6420 (2017) | 216 (1980) | 1840 | 293 | 357 | 576 | 628 | 1340 | 3100 | 3210 | 3550 | 3940 |
| 2026-05-06 14:30 | 3.04 | 665 | 6420 (2017) | 216 (1980) | 1840 | 293 | 357 | 576 | 628 | 1340 | 3100 | 3210 | 3550 | 3940 |
| 2026-05-06 13:30 | 3.00 | 646 | 6420 (2017) | 216 (1980) | 1840 | 293 | 357 | 576 | 628 | 1340 | 3100 | 3210 | 3550 | 3940 |
| 2026-05-06 12:30 | 2.94 | 618 | 6420 (2017) | 216 (1980) | 1840 | 293 | 357 | 576 | 628 | 1340 | 3100 | 3210 | 3550 | 3940 |
| 2026-05-06 11:30 | 2.91 | 605 | 6420 (2017) | 216 (1980) | 1840 | 293 | 357 | 576 | 628 | 1340 | 3100 | 3210 | 3550 | 3940 |
| 2026-05-06 10:30 | 2.91 | 605 | 6420 (2017) | 216 (1980) | 1840 | 293 | 357 | 576 | 628 | 1340 | 3100 | 3210 | 3550 | 3940 |
| 2026-05-06 09:30 | 2.92 | 609 | 6420 (2017) | 216 (1980) | 1840 | 293 | 357 | 576 | 628 | 1340 | 3100 | 3210 | 3550 | 3940 |
| 2026-05-06 08:30 | 2.92 | 609 | 6420 (2017) | 216 (1980) | 1840 | 293 | 357 | 576 | 628 | 1340 | 3100 | 3210 | 3550 | 3940 |
| 2026-05-06 07:30 | 2.93 | 614 | 6420 (2017) | 216 (1980) | 1840 | 293 | 357 | 576 | 628 | 1340 | 3100 | 3210 | 3550 | 3940 |
| 2026-05-06 06:30 | 2.93 | 614 | 6420 (2017) | 216 (1980) | 1840 | 293 | 357 | 576 | 628 | 1340 | 3100 | 3210 | 3550 | 3940 |
| 2026-05-06 05:30 | 2.93 | 614 | 6420 (2017) | 216 (1980) | 1840 | 293 | 357 | 576 | 628 | 1340 | 3100 | 3210 | 3550 | 3940 |
| 2026-05-06 04:30 | 2.94 | 618 | 6420 (2017) | 216 (1980) | 1840 | 293 | 357 | 576 | 628 | 1340 | 3100 | 3210 | 3550 | 3940 |
| 2026-05-06 03:30 | 2.94 | 618 | 6420 (2017) | 216 (1980) | 1840 | 293 | 357 | 576 | 628 | 1340 | 3100 | 3210 | 3550 | 3940 |
| 2026-05-06 02:30 | 2.94 | 618 | 6420 (2017) | 216 (1980) | 1840 | 293 | 357 | 576 | 628 | 1340 | 3100 | 3210 | 3550 | 3940 |
| 2026-05-06 01:30 | 2.94 | 618 | 6420 (2017) | 216 (1980) | 1840 | 293 | 357 | 576 | 628 | 1340 | 3100 | 3210 | 3550 | 3940 |
| 2026-05-06 00:30 | 2.94 | 618 | 6420 (2017) | 216 (1980) | 1840 | 293 | 357 | 576 | 628 | 1340 | 3100 | 3210 | 3550 | 3940 |
| 2026-05-05 23:30 | 2.91 | 605 | 6420 (2017) | 216 (1980) | 1840 | 293 | 357 | 576 | 628 | 1340 | 3100 | 3210 | 3550 | 3940 |
| 2026-05-05 22:30 | 2.89 | 596 | 5770 (2017) | 234 (1981) | 1740 | 308 | 379 | 665 | 682 | 1330 | 2930 | 3090 | 3390 | 3720 |
| 2026-05-05 21:30 | 2.87 | 587 | 5770 (2017) | 234 (1981) | 1740 | 308 | 379 | 665 | 682 | 1330 | 2930 | 3090 | 3390 | 3720 |
| 2026-05-05 20:30 | 2.88 | 591 | 5770 (2017) | 234 (1981) | 1740 | 308 | 379 | 665 | 682 | 1330 | 2930 | 3090 | 3390 | 3720 |
| 2026-05-05 19:30 | 2.88 | 591 | 5770 (2017) | 234 (1981) | 1740 | 308 | 379 | 665 | 682 | 1330 | 2930 | 3090 | 3390 | 3720 |
| 2026-05-05 18:30 | 2.88 | 591 | 5770 (2017) | 234 (1981) | 1740 | 308 | 379 | 665 | 682 | 1330 | 2930 | 3090 | 3390 | 3720 |
| 2026-05-05 17:30 | 2.88 | 591 | 5770 (2017) | 234 (1981) | 1740 | 308 | 379 | 665 | 682 | 1330 | 2930 | 3090 | 3390 | 3720 |
| 2026-05-05 16:30 | 2.89 | 596 | 5770 (2017) | 234 (1981) | 1740 | 308 | 379 | 665 | 682 | 1330 | 2930 | 3090 | 3390 | 3720 |
| 2026-05-05 15:30 | 2.89 | 596 | 5770 (2017) | 234 (1981) | 1740 | 308 | 379 | 665 | 682 | 1330 | 2930 | 3090 | 3390 | 3720 |
| 2026-05-05 14:30 | 2.89 | 596 | 5770 (2017) | 234 (1981) | 1740 | 308 | 379 | 665 | 682 | 1330 | 2930 | 3090 | 3390 | 3720 |
| 2026-05-05 13:30 | 2.90 | 600 | 5770 (2017) | 234 (1981) | 1740 | 308 | 379 | 665 | 682 | 1330 | 2930 | 3090 | 3390 | 3720 |
| 2026-05-05 12:30 | 2.88 | 591 | 5770 (2017) | 234 (1981) | 1740 | 308 | 379 | 665 | 682 | 1330 | 2930 | 3090 | 3390 | 3720 |
| 2026-05-05 11:30 | 2.89 | 596 | 5770 (2017) | 234 (1981) | 1740 | 308 | 379 | 665 | 682 | 1330 | 2930 | 3090 | 3390 | 3720 |
| 2026-05-05 10:30 | 2.90 | 600 | 5770 (2017) | 234 (1981) | 1740 | 308 | 379 | 665 | 682 | 1330 | 2930 | 3090 | 3390 | 3720 |
| 2026-05-05 09:30 | 2.90 | 600 | 5770 (2017) | 234 (1981) | 1740 | 308 | 379 | 665 | 682 | 1330 | 2930 | 3090 | 3390 | 3720 |
| 2026-05-05 08:30 | 2.89 | 596 | 5770 (2017) | 234 (1981) | 1740 | 308 | 379 | 665 | 682 | 1330 | 2930 | 3090 | 3390 | 3720 |
| 2026-05-05 07:30 | 2.90 | 600 | 5770 (2017) | 234 (1981) | 1740 | 308 | 379 | 665 | 682 | 1330 | 2930 | 3090 | 3390 | 3720 |
| 2026-05-05 06:30 | 2.90 | 600 | 5770 (2017) | 234 (1981) | 1740 | 308 | 379 | 665 | 682 | 1330 | 2930 | 3090 | 3390 | 3720 |
| 2026-05-05 05:30 | 2.89 | 596 | 5770 (2017) | 234 (1981) | 1740 | 308 | 379 | 665 | 682 | 1330 | 2930 | 3090 | 3390 | 3720 |
| 2026-05-05 04:30 | 2.89 | 596 | 5770 (2017) | 234 (1981) | 1740 | 308 | 379 | 665 | 682 | 1330 | 2930 | 3090 | 3390 | 3720 |
| 2026-05-05 03:30 | 2.90 | 600 | 5770 (2017) | 234 (1981) | 1740 | 308 | 379 | 665 | 682 | 1330 | 2930 | 3090 | 3390 | 3720 |
| 2026-05-05 02:30 | 2.90 | 600 | 5770 (2017) | 234 (1981) | 1740 | 308 | 379 | 665 | 682 | 1330 | 2930 | 3090 | 3390 | 3720 |
| 2026-05-05 01:30 | 2.91 | 605 | 5770 (2017) | 234 (1981) | 1740 | 308 | 379 | 665 | 682 | 1330 | 2930 | 3090 | 3390 | 3720 |
| 2026-05-05 00:30 | 2.91 | 605 | 5770 (2017) | 234 (1981) | 1740 | 308 | 379 | 665 | 682 | 1330 | 2930 | 3090 | 3390 | 3720 |
| 2026-05-04 23:30 | 2.93 | 614 | 5770 (2017) | 234 (1981) | 1740 | 308 | 379 | 665 | 682 | 1330 | 2930 | 3090 | 3390 | 3720 |
| 2026-05-04 22:30 | 2.92 | 609 | 5760 (2017) | 271 (1981) | 1710 | 328 | 391 | 676 | 726 | 1370 | 2650 | 2990 | 3410 | 3790 |
| 2026-05-04 21:30 | 2.94 | 618 | 5760 (2017) | 271 (1981) | 1710 | 328 | 391 | 676 | 726 | 1370 | 2650 | 2990 | 3410 | 3790 |
| 2026-05-04 20:30 | 2.95 | 623 | 5760 (2017) | 271 (1981) | 1710 | 328 | 391 | 676 | 726 | 1370 | 2650 | 2990 | 3410 | 3790 |
| 2026-05-04 19:30 | 2.97 | 632 | 5760 (2017) | 271 (1981) | 1710 | 328 | 391 | 676 | 726 | 1370 | 2650 | 2990 | 3410 | 3790 |
| 2026-05-04 18:30 | 2.99 | 641 | 5760 (2017) | 271 (1981) | 1710 | 328 | 391 | 676 | 726 | 1370 | 2650 | 2990 | 3410 | 3790 |
| 2026-05-04 17:30 | 3.01 | 650 | 5760 (2017) | 271 (1981) | 1710 | 328 | 391 | 676 | 726 | 1370 | 2650 | 2990 | 3410 | 3790 |
| 2026-05-04 16:30 | 3.06 | 674 | 5760 (2017) | 271 (1981) | 1710 | 328 | 391 | 676 | 726 | 1370 | 2650 | 2990 | 3410 | 3790 |
| 2026-05-04 15:30 | 3.10 | 694 | 5760 (2017) | 271 (1981) | 1710 | 328 | 391 | 676 | 726 | 1370 | 2650 | 2990 | 3410 | 3790 |
| 2026-05-04 14:30 | 3.17 | 728 | 5760 (2017) | 271 (1981) | 1710 | 328 | 391 | 676 | 726 | 1370 | 2650 | 2990 | 3410 | 3790 |
| 2026-05-04 13:30 | 3.24 | 763 | 5760 (2017) | 271 (1981) | 1710 | 328 | 391 | 676 | 726 | 1370 | 2650 | 2990 | 3410 | 3790 |
| 2026-05-04 12:30 | 3.35 | 820 | 5760 (2017) | 271 (1981) | 1710 | 328 | 391 | 676 | 726 | 1370 | 2650 | 2990 | 3410 | 3790 |
| 2026-05-04 11:30 | 3.42 | 857 | 5760 (2017) | 271 (1981) | 1710 | 328 | 391 | 676 | 726 | 1370 | 2650 | 2990 | 3410 | 3790 |
| 2026-05-04 10:30 | 3.46 | 878 | 5760 (2017) | 271 (1981) | 1710 | 328 | 391 | 676 | 726 | 1370 | 2650 | 2990 | 3410 | 3790 |
| 2026-05-04 09:30 | 3.48 | 889 | 5760 (2017) | 271 (1981) | 1710 | 328 | 391 | 676 | 726 | 1370 | 2650 | 2990 | 3410 | 3790 |
| 2026-05-04 08:30 | 3.47 | 883 | 5760 (2017) | 271 (1981) | 1710 | 328 | 391 | 676 | 726 | 1370 | 2650 | 2990 | 3410 | 3790 |
| 2026-05-04 07:30 | 3.47 | 883 | 5760 (2017) | 271 (1981) | 1710 | 328 | 391 | 676 | 726 | 1370 | 2650 | 2990 | 3410 | 3790 |
| 2026-05-04 06:30 | 3.47 | 883 | 5760 (2017) | 271 (1981) | 1710 | 328 | 391 | 676 | 726 | 1370 | 2650 | 2990 | 3410 | 3790 |
| 2026-05-04 05:30 | 3.46 | 878 | 5760 (2017) | 271 (1981) | 1710 | 328 | 391 | 676 | 726 | 1370 | 2650 | 2990 | 3410 | 3790 |
| 2026-05-04 04:30 | 3.47 | 883 | 5760 (2017) | 271 (1981) | 1710 | 328 | 391 | 676 | 726 | 1370 | 2650 | 2990 | 3410 | 3790 |
| 2026-05-04 03:30 | 3.48 | 889 | 5760 (2017) | 271 (1981) | 1710 | 328 | 391 | 676 | 726 | 1370 | 2650 | 2990 | 3410 | 3790 |
| 2026-05-04 02:30 | 3.48 | 889 | 5760 (2017) | 271 (1981) | 1710 | 328 | 391 | 676 | 726 | 1370 | 2650 | 2990 | 3410 | 3790 |
| 2026-05-04 01:30 | 3.48 | 889 | 5760 (2017) | 271 (1981) | 1710 | 328 | 391 | 676 | 726 | 1370 | 2650 | 2990 | 3410 | 3790 |
| 2026-05-04 00:30 | 3.48 | 889 | 5760 (2017) | 271 (1981) | 1710 | 328 | 391 | 676 | 726 | 1370 | 2650 | 2990 | 3410 | 3790 |
| 2026-05-03 23:30 | 3.47 | 883 | 5760 (2017) | 271 (1981) | 1710 | 328 | 391 | 676 | 726 | 1370 | 2650 | 2990 | 3410 | 3790 |
| 2026-05-03 22:30 | 3.48 | 889 | 5010 (2011) | 228 (1984) | 1750 | 289 | 377 | 655 | 683 | 1390 | 2740 | 2990 | 3470 | 3800 |
| 2026-05-03 21:30 | 3.47 | 883 | 5010 (2011) | 228 (1984) | 1750 | 289 | 377 | 655 | 683 | 1390 | 2740 | 2990 | 3470 | 3800 |
| 2026-05-03 20:30 | 3.48 | 889 | 5010 (2011) | 228 (1984) | 1750 | 289 | 377 | 655 | 683 | 1390 | 2740 | 2990 | 3470 | 3800 |
| 2026-05-03 19:30 | 3.47 | 883 | 5010 (2011) | 228 (1984) | 1750 | 289 | 377 | 655 | 683 | 1390 | 2740 | 2990 | 3470 | 3800 |
| 2026-05-03 18:30 | 3.47 | 883 | 5010 (2011) | 228 (1984) | 1750 | 289 | 377 | 655 | 683 | 1390 | 2740 | 2990 | 3470 | 3800 |
| 2026-05-03 17:30 | 3.47 | 883 | 5010 (2011) | 228 (1984) | 1750 | 289 | 377 | 655 | 683 | 1390 | 2740 | 2990 | 3470 | 3800 |
| 2026-05-03 16:30 | 3.47 | 883 | 5010 (2011) | 228 (1984) | 1750 | 289 | 377 | 655 | 683 | 1390 | 2740 | 2990 | 3470 | 3800 |
| 2026-05-03 15:30 | 3.47 | 883 | 5010 (2011) | 228 (1984) | 1750 | 289 | 377 | 655 | 683 | 1390 | 2740 | 2990 | 3470 | 3800 |
| 2026-05-03 14:30 | 3.47 | 883 | 5010 (2011) | 228 (1984) | 1750 | 289 | 377 | 655 | 683 | 1390 | 2740 | 2990 | 3470 | 3800 |
| 2026-05-03 13:30 | 3.48 | 889 | 5010 (2011) | 228 (1984) | 1750 | 289 | 377 | 655 | 683 | 1390 | 2740 | 2990 | 3470 | 3800 |
| 2026-05-03 12:30 | 3.47 | 883 | 5010 (2011) | 228 (1984) | 1750 | 289 | 377 | 655 | 683 | 1390 | 2740 | 2990 | 3470 | 3800 |
| 2026-05-03 11:30 | 3.48 | 889 | 5010 (2011) | 228 (1984) | 1750 | 289 | 377 | 655 | 683 | 1390 | 2740 | 2990 | 3470 | 3800 |
| 2026-05-03 10:30 | 3.47 | 883 | 5010 (2011) | 228 (1984) | 1750 | 289 | 377 | 655 | 683 | 1390 | 2740 | 2990 | 3470 | 3800 |
| 2026-05-03 09:30 | 3.48 | 889 | 5010 (2011) | 228 (1984) | 1750 | 289 | 377 | 655 | 683 | 1390 | 2740 | 2990 | 3470 | 3800 |
| 2026-05-03 08:30 | 3.47 | 883 | 5010 (2011) | 228 (1984) | 1750 | 289 | 377 | 655 | 683 | 1390 | 2740 | 2990 | 3470 | 3800 |
| 2026-05-03 07:30 | 3.47 | 883 | 5010 (2011) | 228 (1984) | 1750 | 289 | 377 | 655 | 683 | 1390 | 2740 | 2990 | 3470 | 3800 |
| 2026-05-03 06:30 | 3.47 | 883 | 5010 (2011) | 228 (1984) | 1750 | 289 | 377 | 655 | 683 | 1390 | 2740 | 2990 | 3470 | 3800 |
| 2026-05-03 05:30 | 3.48 | 889 | 5010 (2011) | 228 (1984) | 1750 | 289 | 377 | 655 | 683 | 1390 | 2740 | 2990 | 3470 | 3800 |
| 2026-05-03 04:30 | 3.47 | 883 | 5010 (2011) | 228 (1984) | 1750 | 289 | 377 | 655 | 683 | 1390 | 2740 | 2990 | 3470 | 3800 |
| 2026-05-03 03:30 | 3.48 | 889 | 5010 (2011) | 228 (1984) | 1750 | 289 | 377 | 655 | 683 | 1390 | 2740 | 2990 | 3470 | 3800 |
| 2026-05-03 02:30 | 3.47 | 883 | 5010 (2011) | 228 (1984) | 1750 | 289 | 377 | 655 | 683 | 1390 | 2740 | 2990 | 3470 | 3800 |
| 2026-05-03 01:30 | 3.47 | 883 | 5010 (2011) | 228 (1984) | 1750 | 289 | 377 | 655 | 683 | 1390 | 2740 | 2990 | 3470 | 3800 |
| 2026-05-03 00:30 | 3.47 | 883 | 5010 (2011) | 228 (1984) | 1750 | 289 | 377 | 655 | 683 | 1390 | 2740 | 2990 | 3470 | 3800 |
| 2026-05-02 23:30 | 3.47 | 883 | 5010 (2011) | 228 (1984) | 1750 | 289 | 377 | 655 | 683 | 1390 | 2740 | 2990 | 3470 | 3800 |
| 2026-05-02 22:30 | 3.47 | 883 | 6650 (2011) | 208 (2012) | 1750 | 260 | 364 | 550 | 718 | 1430 | 2610 | 2980 | 3490 | 3760 |
| 2026-05-02 21:30 | 3.46 | 878 | 6650 (2011) | 208 (2012) | 1750 | 260 | 364 | 550 | 718 | 1430 | 2610 | 2980 | 3490 | 3760 |
| 2026-05-02 20:30 | 3.47 | 883 | 6650 (2011) | 208 (2012) | 1750 | 260 | 364 | 550 | 718 | 1430 | 2610 | 2980 | 3490 | 3760 |
| 2026-05-02 19:30 | 3.48 | 889 | 6650 (2011) | 208 (2012) | 1750 | 260 | 364 | 550 | 718 | 1430 | 2610 | 2980 | 3490 | 3760 |
| 2026-05-02 18:30 | 3.47 | 883 | 6650 (2011) | 208 (2012) | 1750 | 260 | 364 | 550 | 718 | 1430 | 2610 | 2980 | 3490 | 3760 |
| 2026-05-02 17:30 | 3.47 | 883 | 6650 (2011) | 208 (2012) | 1750 | 260 | 364 | 550 | 718 | 1430 | 2610 | 2980 | 3490 | 3760 |
| 2026-05-02 16:30 | 3.47 | 883 | 6650 (2011) | 208 (2012) | 1750 | 260 | 364 | 550 | 718 | 1430 | 2610 | 2980 | 3490 | 3760 |
| 2026-05-02 15:30 | 3.47 | 883 | 6650 (2011) | 208 (2012) | 1750 | 260 | 364 | 550 | 718 | 1430 | 2610 | 2980 | 3490 | 3760 |
| 2026-05-02 14:30 | 3.46 | 878 | 6650 (2011) | 208 (2012) | 1750 | 260 | 364 | 550 | 718 | 1430 | 2610 | 2980 | 3490 | 3760 |
| 2026-05-02 13:30 | 3.46 | 878 | 6650 (2011) | 208 (2012) | 1750 | 260 | 364 | 550 | 718 | 1430 | 2610 | 2980 | 3490 | 3760 |
| 2026-05-02 12:30 | 3.45 | 873 | 6650 (2011) | 208 (2012) | 1750 | 260 | 364 | 550 | 718 | 1430 | 2610 | 2980 | 3490 | 3760 |
| 2026-05-02 11:30 | 3.47 | 883 | 6650 (2011) | 208 (2012) | 1750 | 260 | 364 | 550 | 718 | 1430 | 2610 | 2980 | 3490 | 3760 |
| 2026-05-02 10:30 | 3.46 | 878 | 6650 (2011) | 208 (2012) | 1750 | 260 | 364 | 550 | 718 | 1430 | 2610 | 2980 | 3490 | 3760 |
| 2026-05-02 09:30 | 3.45 | 873 | 6650 (2011) | 208 (2012) | 1750 | 260 | 364 | 550 | 718 | 1430 | 2610 | 2980 | 3490 | 3760 |
| 2026-05-02 08:30 | 3.45 | 873 | 6650 (2011) | 208 (2012) | 1750 | 260 | 364 | 550 | 718 | 1430 | 2610 | 2980 | 3490 | 3760 |
| 2026-05-02 07:30 | 3.45 | 873 | 6650 (2011) | 208 (2012) | 1750 | 260 | 364 | 550 | 718 | 1430 | 2610 | 2980 | 3490 | 3760 |
| 2026-05-02 06:30 | 3.45 | 873 | 6650 (2011) | 208 (2012) | 1750 | 260 | 364 | 550 | 718 | 1430 | 2610 | 2980 | 3490 | 3760 |
| 2026-05-02 05:30 | 3.44 | 867 | 6650 (2011) | 208 (2012) | 1750 | 260 | 364 | 550 | 718 | 1430 | 2610 | 2980 | 3490 | 3760 |
| 2026-05-02 04:30 | 3.44 | 867 | 6650 (2011) | 208 (2012) | 1750 | 260 | 364 | 550 | 718 | 1430 | 2610 | 2980 | 3490 | 3760 |
| 2026-05-02 03:30 | 3.43 | 862 | 6650 (2011) | 208 (2012) | 1750 | 260 | 364 | 550 | 718 | 1430 | 2610 | 2980 | 3490 | 3760 |
| 2026-05-02 02:30 | 3.43 | 862 | 6650 (2011) | 208 (2012) | 1750 | 260 | 364 | 550 | 718 | 1430 | 2610 | 2980 | 3490 | 3760 |
| 2026-05-02 01:30 | 3.42 | 857 | 6650 (2011) | 208 (2012) | 1750 | 260 | 364 | 550 | 718 | 1430 | 2610 | 2980 | 3490 | 3760 |
| 2026-05-02 00:30 | 3.41 | 851 | 6650 (2011) | 208 (2012) | 1750 | 260 | 364 | 550 | 718 | 1430 | 2610 | 2980 | 3490 | 3760 |
| 2026-05-01 23:30 | 3.40 | 846 | 6650 (2011) | 208 (2012) | 1750 | 260 | 364 | 550 | 718 | 1430 | 2610 | 2980 | 3490 | 3760 |
| 2026-05-01 22:30 | 3.39 | 841 | 6080 (2017) | 224 (2012) | 1740 | 299 | 402 | 534 | 786 | 1340 | 2660 | 3040 | 3330 | 3610 |
| 2026-05-01 21:30 | 3.37 | 830 | 6080 (2017) | 224 (2012) | 1740 | 299 | 402 | 534 | 786 | 1340 | 2660 | 3040 | 3330 | 3610 |
| 2026-05-01 20:30 | 3.35 | 820 | 6080 (2017) | 224 (2012) | 1740 | 299 | 402 | 534 | 786 | 1340 | 2660 | 3040 | 3330 | 3610 |
| 2026-05-01 19:30 | 3.32 | 804 | 6080 (2017) | 224 (2012) | 1740 | 299 | 402 | 534 | 786 | 1340 | 2660 | 3040 | 3330 | 3610 |
| 2026-05-01 18:30 | 3.29 | 789 | 6080 (2017) | 224 (2012) | 1740 | 299 | 402 | 534 | 786 | 1340 | 2660 | 3040 | 3330 | 3610 |
| 2026-05-01 17:30 | 3.24 | 763 | 6080 (2017) | 224 (2012) | 1740 | 299 | 402 | 534 | 786 | 1340 | 2660 | 3040 | 3330 | 3610 |
| 2026-05-01 16:30 | 3.18 | 733 | 6080 (2017) | 224 (2012) | 1740 | 299 | 402 | 534 | 786 | 1340 | 2660 | 3040 | 3330 | 3610 |
| 2026-05-01 15:30 | 3.10 | 694 | 6080 (2017) | 224 (2012) | 1740 | 299 | 402 | 534 | 786 | 1340 | 2660 | 3040 | 3330 | 3610 |
| 2026-05-01 14:30 | 2.98 | 636 | 6080 (2017) | 224 (2012) | 1740 | 299 | 402 | 534 | 786 | 1340 | 2660 | 3040 | 3330 | 3610 |
| 2026-05-01 13:30 | 2.81 | 560 | 6080 (2017) | 224 (2012) | 1740 | 299 | 402 | 534 | 786 | 1340 | 2660 | 3040 | 3330 | 3610 |
| 2026-05-01 12:30 | 2.59 | 467 | 6080 (2017) | 224 (2012) | 1740 | 299 | 402 | 534 | 786 | 1340 | 2660 | 3040 | 3330 | 3610 |
| 2026-05-01 11:30 | 2.35 | 373 | 6080 (2017) | 224 (2012) | 1740 | 299 | 402 | 534 | 786 | 1340 | 2660 | 3040 | 3330 | 3610 |
| 2026-05-01 10:30 | 2.23 | 329 | 6080 (2017) | 224 (2012) | 1740 | 299 | 402 | 534 | 786 | 1340 | 2660 | 3040 | 3330 | 3610 |
| 2026-05-01 09:30 | 2.22 | 326 | 6080 (2017) | 224 (2012) | 1740 | 299 | 402 | 534 | 786 | 1340 | 2660 | 3040 | 3330 | 3610 |
| 2026-05-01 08:30 | 2.22 | 326 | 6080 (2017) | 224 (2012) | 1740 | 299 | 402 | 534 | 786 | 1340 | 2660 | 3040 | 3330 | 3610 |
| 2026-05-01 07:30 | 2.22 | 326 | 6080 (2017) | 224 (2012) | 1740 | 299 | 402 | 534 | 786 | 1340 | 2660 | 3040 | 3330 | 3610 |
| 2026-05-01 06:30 | 2.22 | 326 | 6080 (2017) | 224 (2012) | 1740 | 299 | 402 | 534 | 786 | 1340 | 2660 | 3040 | 3330 | 3610 |
| 2026-05-01 05:30 | 2.23 | 329 | 6080 (2017) | 224 (2012) | 1740 | 299 | 402 | 534 | 786 | 1340 | 2660 | 3040 | 3330 | 3610 |
| 2026-05-01 04:30 | 2.23 | 329 | 6080 (2017) | 224 (2012) | 1740 | 299 | 402 | 534 | 786 | 1340 | 2660 | 3040 | 3330 | 3610 |
| 2026-05-01 03:30 | 2.23 | 329 | 6080 (2017) | 224 (2012) | 1740 | 299 | 402 | 534 | 786 | 1340 | 2660 | 3040 | 3330 | 3610 |
| 2026-05-01 02:30 | 2.23 | 329 | 6080 (2017) | 224 (2012) | 1740 | 299 | 402 | 534 | 786 | 1340 | 2660 | 3040 | 3330 | 3610 |
| 2026-05-01 01:30 | 2.24 | 333 | 6080 (2017) | 224 (2012) | 1740 | 299 | 402 | 534 | 786 | 1340 | 2660 | 3040 | 3330 | 3610 |
| 2026-05-01 00:30 | 2.24 | 333 | 6080 (2017) | 224 (2012) | 1740 | 299 | 402 | 534 | 786 | 1340 | 2660 | 3040 | 3330 | 3610 |
| 2026-04-30 23:30 | 2.24 | 333 | 6080 (2017) | 224 (2012) | 1740 | 299 | 402 | 534 | 786 | 1340 | 2660 | 3040 | 3330 | 3610 |
| 2026-04-30 22:30 | 2.24 | 333 | 11400 (2017) | 250 (2015) | 1930 | 386 | 432 | 562 | 637 | 1570 | 2840 | 2950 | 3480 | 3790 |
| 2026-04-30 21:30 | 2.25 | 336 | 11400 (2017) | 250 (2015) | 1930 | 386 | 432 | 562 | 637 | 1570 | 2840 | 2950 | 3480 | 3790 |
| 2026-04-30 20:30 | 2.26 | 340 | 11400 (2017) | 250 (2015) | 1930 | 386 | 432 | 562 | 637 | 1570 | 2840 | 2950 | 3480 | 3790 |
| 2026-04-30 19:30 | 2.26 | 340 | 11400 (2017) | 250 (2015) | 1930 | 386 | 432 | 562 | 637 | 1570 | 2840 | 2950 | 3480 | 3790 |
| 2026-04-30 18:30 | 2.26 | 340 | 11400 (2017) | 250 (2015) | 1930 | 386 | 432 | 562 | 637 | 1570 | 2840 | 2950 | 3480 | 3790 |
| 2026-04-30 17:30 | 2.26 | 340 | 11400 (2017) | 250 (2015) | 1930 | 386 | 432 | 562 | 637 | 1570 | 2840 | 2950 | 3480 | 3790 |
| 2026-04-30 16:30 | 2.28 | 347 | 11400 (2017) | 250 (2015) | 1930 | 386 | 432 | 562 | 637 | 1570 | 2840 | 2950 | 3480 | 3790 |
| 2026-04-30 15:30 | 2.28 | 347 | 11400 (2017) | 250 (2015) | 1930 | 386 | 432 | 562 | 637 | 1570 | 2840 | 2950 | 3480 | 3790 |
| 2026-04-30 14:30 | 2.29 | 351 | 11400 (2017) | 250 (2015) | 1930 | 386 | 432 | 562 | 637 | 1570 | 2840 | 2950 | 3480 | 3790 |
| 2026-04-30 13:30 | 2.29 | 351 | 11400 (2017) | 250 (2015) | 1930 | 386 | 432 | 562 | 637 | 1570 | 2840 | 2950 | 3480 | 3790 |
| 2026-04-30 12:30 | 2.31 | 358 | 11400 (2017) | 250 (2015) | 1930 | 386 | 432 | 562 | 637 | 1570 | 2840 | 2950 | 3480 | 3790 |
| 2026-04-30 11:30 | 2.30 | 354 | 11400 (2017) | 250 (2015) | 1930 | 386 | 432 | 562 | 637 | 1570 | 2840 | 2950 | 3480 | 3790 |
| 2026-04-30 10:30 | 2.30 | 354 | 11400 (2017) | 250 (2015) | 1930 | 386 | 432 | 562 | 637 | 1570 | 2840 | 2950 | 3480 | 3790 |
| 2026-04-30 09:30 | 2.31 | 358 | 11400 (2017) | 250 (2015) | 1930 | 386 | 432 | 562 | 637 | 1570 | 2840 | 2950 | 3480 | 3790 |
| 2026-04-30 08:30 | 2.31 | 358 | 11400 (2017) | 250 (2015) | 1930 | 386 | 432 | 562 | 637 | 1570 | 2840 | 2950 | 3480 | 3790 |
| 2026-04-30 07:30 | 2.32 | 362 | 11400 (2017) | 250 (2015) | 1930 | 386 | 432 | 562 | 637 | 1570 | 2840 | 2950 | 3480 | 3790 |
| 2026-04-30 06:30 | 2.34 | 369 | 11400 (2017) | 250 (2015) | 1930 | 386 | 432 | 562 | 637 | 1570 | 2840 | 2950 | 3480 | 3790 |
| 2026-04-30 05:30 | 2.35 | 373 | 11400 (2017) | 250 (2015) | 1930 | 386 | 432 | 562 | 637 | 1570 | 2840 | 2950 | 3480 | 3790 |
| 2026-04-30 04:30 | 2.35 | 373 | 11400 (2017) | 250 (2015) | 1930 | 386 | 432 | 562 | 637 | 1570 | 2840 | 2950 | 3480 | 3790 |
| 2026-04-30 03:30 | 2.36 | 377 | 11400 (2017) | 250 (2015) | 1930 | 386 | 432 | 562 | 637 | 1570 | 2840 | 2950 | 3480 | 3790 |
| 2026-04-30 02:30 | 2.36 | 377 | 11400 (2017) | 250 (2015) | 1930 | 386 | 432 | 562 | 637 | 1570 | 2840 | 2950 | 3480 | 3790 |
| 2026-04-30 01:30 | 2.37 | 380 | 11400 (2017) | 250 (2015) | 1930 | 386 | 432 | 562 | 637 | 1570 | 2840 | 2950 | 3480 | 3790 |
| 2026-04-30 00:30 | 2.39 | 388 | 11400 (2017) | 250 (2015) | 1930 | 386 | 432 | 562 | 637 | 1570 | 2840 | 2950 | 3480 | 3790 |
| 2026-04-29 23:30 | 2.40 | 392 | 11400 (2017) | 250 (2015) | 1930 | 386 | 432 | 562 | 637 | 1570 | 2840 | 2950 | 3480 | 3790 |
| 2026-04-29 22:30 | 2.40 | 392 | 3780 (2017) | 237 (1984) | 1580 | 273 | 413 | 608 | 654 | 1220 | 2270 | 2960 | 3300 | 3610 |
| 2026-04-29 21:30 | 2.42 | 400 | 3780 (2017) | 237 (1984) | 1580 | 273 | 413 | 608 | 654 | 1220 | 2270 | 2960 | 3300 | 3610 |
| 2026-04-29 20:30 | 2.43 | 403 | 3780 (2017) | 237 (1984) | 1580 | 273 | 413 | 608 | 654 | 1220 | 2270 | 2960 | 3300 | 3610 |
| 2026-04-29 19:30 | 2.44 | 407 | 3780 (2017) | 237 (1984) | 1580 | 273 | 413 | 608 | 654 | 1220 | 2270 | 2960 | 3300 | 3610 |
| 2026-04-29 18:30 | 2.45 | 411 | 3780 (2017) | 237 (1984) | 1580 | 273 | 413 | 608 | 654 | 1220 | 2270 | 2960 | 3300 | 3610 |
| 2026-04-29 17:30 | 2.46 | 415 | 3780 (2017) | 237 (1984) | 1580 | 273 | 413 | 608 | 654 | 1220 | 2270 | 2960 | 3300 | 3610 |
| 2026-04-29 16:30 | 2.48 | 423 | 3780 (2017) | 237 (1984) | 1580 | 273 | 413 | 608 | 654 | 1220 | 2270 | 2960 | 3300 | 3610 |
| 2026-04-29 15:30 | 2.50 | 431 | 3780 (2017) | 237 (1984) | 1580 | 273 | 413 | 608 | 654 | 1220 | 2270 | 2960 | 3300 | 3610 |
| 2026-04-29 14:30 | 2.51 | 435 | 3780 (2017) | 237 (1984) | 1580 | 273 | 413 | 608 | 654 | 1220 | 2270 | 2960 | 3300 | 3610 |
| 2026-04-29 13:30 | 2.52 | 439 | 3780 (2017) | 237 (1984) | 1580 | 273 | 413 | 608 | 654 | 1220 | 2270 | 2960 | 3300 | 3610 |
| 2026-04-29 12:30 | 2.53 | 443 | 3780 (2017) | 237 (1984) | 1580 | 273 | 413 | 608 | 654 | 1220 | 2270 | 2960 | 3300 | 3610 |
| 2026-04-29 11:30 | 2.54 | 447 | 3780 (2017) | 237 (1984) | 1580 | 273 | 413 | 608 | 654 | 1220 | 2270 | 2960 | 3300 | 3610 |
| 2026-04-29 10:30 | 2.54 | 447 | 3780 (2017) | 237 (1984) | 1580 | 273 | 413 | 608 | 654 | 1220 | 2270 | 2960 | 3300 | 3610 |
| 2026-04-29 09:30 | 2.52 | 439 | 3780 (2017) | 237 (1984) | 1580 | 273 | 413 | 608 | 654 | 1220 | 2270 | 2960 | 3300 | 3610 |
| 2026-04-29 08:30 | 2.50 | 431 | 3780 (2017) | 237 (1984) | 1580 | 273 | 413 | 608 | 654 | 1220 | 2270 | 2960 | 3300 | 3610 |
| 2026-04-29 07:30 | 2.51 | 435 | 3780 (2017) | 237 (1984) | 1580 | 273 | 413 | 608 | 654 | 1220 | 2270 | 2960 | 3300 | 3610 |
| 2026-04-29 06:30 | 2.52 | 439 | 3780 (2017) | 237 (1984) | 1580 | 273 | 413 | 608 | 654 | 1220 | 2270 | 2960 | 3300 | 3610 |
| 2026-04-29 05:30 | 2.54 | 447 | 3780 (2017) | 237 (1984) | 1580 | 273 | 413 | 608 | 654 | 1220 | 2270 | 2960 | 3300 | 3610 |
| 2026-04-29 04:30 | 2.56 | 455 | 3780 (2017) | 237 (1984) | 1580 | 273 | 413 | 608 | 654 | 1220 | 2270 | 2960 | 3300 | 3610 |
| 2026-04-29 03:30 | 2.58 | 463 | 3780 (2017) | 237 (1984) | 1580 | 273 | 413 | 608 | 654 | 1220 | 2270 | 2960 | 3300 | 3610 |
| 2026-04-29 02:30 | 2.60 | 471 | 3780 (2017) | 237 (1984) | 1580 | 273 | 413 | 608 | 654 | 1220 | 2270 | 2960 | 3300 | 3610 |
| 2026-04-29 01:30 | 2.63 | 483 | 3780 (2017) | 237 (1984) | 1580 | 273 | 413 | 608 | 654 | 1220 | 2270 | 2960 | 3300 | 3610 |
| 2026-04-29 00:30 | 2.66 | 496 | 3780 (2017) | 237 (1984) | 1580 | 273 | 413 | 608 | 654 | 1220 | 2270 | 2960 | 3300 | 3610 |
| 2026-04-28 23:30 | 2.68 | 504 | 3780 (2017) | 237 (1984) | 1580 | 273 | 413 | 608 | 654 | 1220 | 2270 | 2960 | 3300 | 3610 |
| 2026-04-28 22:30 | 2.66 | 496 | 3680 (2025) | 175 (1984) | 1610 | 304 | 407 | 543 | 631 | 1340 | 2860 | 2920 | 3220 | 3480 |
| 2026-04-28 21:30 | 2.70 | 513 | 3680 (2025) | 175 (1984) | 1610 | 304 | 407 | 543 | 631 | 1340 | 2860 | 2920 | 3220 | 3480 |
| 2026-04-28 20:30 | 2.75 | 534 | 3680 (2025) | 175 (1984) | 1610 | 304 | 407 | 543 | 631 | 1340 | 2860 | 2920 | 3220 | 3480 |
| 2026-04-28 19:30 | 2.79 | 551 | 3680 (2025) | 175 (1984) | 1610 | 304 | 407 | 543 | 631 | 1340 | 2860 | 2920 | 3220 | 3480 |
| 2026-04-28 18:30 | 2.85 | 578 | 3680 (2025) | 175 (1984) | 1610 | 304 | 407 | 543 | 631 | 1340 | 2860 | 2920 | 3220 | 3480 |
| 2026-04-28 17:30 | 2.93 | 614 | 3680 (2025) | 175 (1984) | 1610 | 304 | 407 | 543 | 631 | 1340 | 2860 | 2920 | 3220 | 3480 |
| 2026-04-28 16:30 | 3.00 | 646 | 3680 (2025) | 175 (1984) | 1610 | 304 | 407 | 543 | 631 | 1340 | 2860 | 2920 | 3220 | 3480 |
| 2026-04-28 15:30 | 3.13 | 708 | 3680 (2025) | 175 (1984) | 1610 | 304 | 407 | 543 | 631 | 1340 | 2860 | 2920 | 3220 | 3480 |
| 2026-04-28 14:30 | 3.29 | 789 | 3680 (2025) | 175 (1984) | 1610 | 304 | 407 | 543 | 631 | 1340 | 2860 | 2920 | 3220 | 3480 |
| 2026-04-28 13:30 | 3.49 | 894 | 3680 (2025) | 175 (1984) | 1610 | 304 | 407 | 543 | 631 | 1340 | 2860 | 2920 | 3220 | 3480 |
| 2026-04-28 12:30 | 3.75 | 1040 | 3680 (2025) | 175 (1984) | 1610 | 304 | 407 | 543 | 631 | 1340 | 2860 | 2920 | 3220 | 3480 |
| 2026-04-28 11:30 | 4.04 | 1210 | 3680 (2025) | 175 (1984) | 1610 | 304 | 407 | 543 | 631 | 1340 | 2860 | 2920 | 3220 | 3480 |
| 2026-04-28 10:30 | 4.27 | 1350 | 3680 (2025) | 175 (1984) | 1610 | 304 | 407 | 543 | 631 | 1340 | 2860 | 2920 | 3220 | 3480 |
| 2026-04-28 09:30 | 4.34 | 1400 | 3680 (2025) | 175 (1984) | 1610 | 304 | 407 | 543 | 631 | 1340 | 2860 | 2920 | 3220 | 3480 |
| 2026-04-28 08:30 | 4.34 | 1400 | 3680 (2025) | 175 (1984) | 1610 | 304 | 407 | 543 | 631 | 1340 | 2860 | 2920 | 3220 | 3480 |
| 2026-04-28 07:30 | 4.36 | 1410 | 3680 (2025) | 175 (1984) | 1610 | 304 | 407 | 543 | 631 | 1340 | 2860 | 2920 | 3220 | 3480 |
| 2026-04-28 06:30 | 4.37 | 1420 | 3680 (2025) | 175 (1984) | 1610 | 304 | 407 | 543 | 631 | 1340 | 2860 | 2920 | 3220 | 3480 |
| 2026-04-28 05:30 | 4.41 | 1440 | 3680 (2025) | 175 (1984) | 1610 | 304 | 407 | 543 | 631 | 1340 | 2860 | 2920 | 3220 | 3480 |
| 2026-04-28 04:30 | 4.41 | 1440 | 3680 (2025) | 175 (1984) | 1610 | 304 | 407 | 543 | 631 | 1340 | 2860 | 2920 | 3220 | 3480 |
| 2026-04-28 03:30 | 4.40 | 1430 | 3680 (2025) | 175 (1984) | 1610 | 304 | 407 | 543 | 631 | 1340 | 2860 | 2920 | 3220 | 3480 |
| 2026-04-28 02:30 | 4.35 | 1400 | 3680 (2025) | 175 (1984) | 1610 | 304 | 407 | 543 | 631 | 1340 | 2860 | 2920 | 3220 | 3480 |
| 2026-04-28 01:30 | 4.32 | 1380 | 3680 (2025) | 175 (1984) | 1610 | 304 | 407 | 543 | 631 | 1340 | 2860 | 2920 | 3220 | 3480 |
| 2026-04-28 00:30 | 4.29 | 1360 | 3680 (2025) | 175 (1984) | 1610 | 304 | 407 | 543 | 631 | 1340 | 2860 | 2920 | 3220 | 3480 |
| 2026-04-27 23:30 | 4.33 | 1390 | 3680 (2025) | 175 (1984) | 1610 | 304 | 407 | 543 | 631 | 1340 | 2860 | 2920 | 3220 | 3480 |
| 2026-04-27 22:30 | 4.34 | 1400 | 3950 (2011) | 171 (1984) | 1610 | 344 | 391 | 578 | 627 | 1220 | 2660 | 2970 | 3360 | 3650 |
| 2026-04-27 21:30 | 4.38 | 1420 | 3950 (2011) | 171 (1984) | 1610 | 344 | 391 | 578 | 627 | 1220 | 2660 | 2970 | 3360 | 3650 |
| 2026-04-27 20:30 | 4.44 | 1460 | 3950 (2011) | 171 (1984) | 1610 | 344 | 391 | 578 | 627 | 1220 | 2660 | 2970 | 3360 | 3650 |
| 2026-04-27 19:30 | 4.52 | 1510 | 3950 (2011) | 171 (1984) | 1610 | 344 | 391 | 578 | 627 | 1220 | 2660 | 2970 | 3360 | 3650 |
| 2026-04-27 18:30 | 4.60 | 1570 | 3950 (2011) | 171 (1984) | 1610 | 344 | 391 | 578 | 627 | 1220 | 2660 | 2970 | 3360 | 3650 |
| 2026-04-27 17:30 | 4.65 | 1600 | 3950 (2011) | 171 (1984) | 1610 | 344 | 391 | 578 | 627 | 1220 | 2660 | 2970 | 3360 | 3650 |
| 2026-04-27 16:30 | 4.68 | 1620 | 3950 (2011) | 171 (1984) | 1610 | 344 | 391 | 578 | 627 | 1220 | 2660 | 2970 | 3360 | 3650 |
| 2026-04-27 15:30 | 4.69 | 1630 | 3950 (2011) | 171 (1984) | 1610 | 344 | 391 | 578 | 627 | 1220 | 2660 | 2970 | 3360 | 3650 |
| 2026-04-27 14:30 | 4.70 | 1630 | 3950 (2011) | 171 (1984) | 1610 | 344 | 391 | 578 | 627 | 1220 | 2660 | 2970 | 3360 | 3650 |
| 2026-04-27 13:30 | 4.68 | 1620 | 3950 (2011) | 171 (1984) | 1610 | 344 | 391 | 578 | 627 | 1220 | 2660 | 2970 | 3360 | 3650 |
| 2026-04-27 12:30 | 4.68 | 1620 | 3950 (2011) | 171 (1984) | 1610 | 344 | 391 | 578 | 627 | 1220 | 2660 | 2970 | 3360 | 3650 |
| 2026-04-27 11:30 | 4.69 | 1630 | 3950 (2011) | 171 (1984) | 1610 | 344 | 391 | 578 | 627 | 1220 | 2660 | 2970 | 3360 | 3650 |
| 2026-04-27 10:30 | 4.70 | 1630 | 3950 (2011) | 171 (1984) | 1610 | 344 | 391 | 578 | 627 | 1220 | 2660 | 2970 | 3360 | 3650 |
| 2026-04-27 09:30 | 4.68 | 1620 | 3950 (2011) | 171 (1984) | 1610 | 344 | 391 | 578 | 627 | 1220 | 2660 | 2970 | 3360 | 3650 |
| 2026-04-27 08:30 | 4.69 | 1630 | 3950 (2011) | 171 (1984) | 1610 | 344 | 391 | 578 | 627 | 1220 | 2660 | 2970 | 3360 | 3650 |
| 2026-04-27 07:30 | 4.69 | 1630 | 3950 (2011) | 171 (1984) | 1610 | 344 | 391 | 578 | 627 | 1220 | 2660 | 2970 | 3360 | 3650 |
| 2026-04-27 06:30 | 4.70 | 1630 | 3950 (2011) | 171 (1984) | 1610 | 344 | 391 | 578 | 627 | 1220 | 2660 | 2970 | 3360 | 3650 |
| 2026-04-27 05:30 | 4.72 | 1650 | 3950 (2011) | 171 (1984) | 1610 | 344 | 391 | 578 | 627 | 1220 | 2660 | 2970 | 3360 | 3650 |
| 2026-04-27 04:30 | 4.68 | 1620 | 3950 (2011) | 171 (1984) | 1610 | 344 | 391 | 578 | 627 | 1220 | 2660 | 2970 | 3360 | 3650 |
| 2026-04-27 03:30 | 4.69 | 1630 | 3950 (2011) | 171 (1984) | 1610 | 344 | 391 | 578 | 627 | 1220 | 2660 | 2970 | 3360 | 3650 |
| 2026-04-27 02:30 | 4.70 | 1630 | 3950 (2011) | 171 (1984) | 1610 | 344 | 391 | 578 | 627 | 1220 | 2660 | 2970 | 3360 | 3650 |
| 2026-04-27 01:30 | 4.70 | 1630 | 3950 (2011) | 171 (1984) | 1610 | 344 | 391 | 578 | 627 | 1220 | 2660 | 2970 | 3360 | 3650 |
| 2026-04-27 00:30 | 4.69 | 1630 | 3950 (2011) | 171 (1984) | 1610 | 344 | 391 | 578 | 627 | 1220 | 2660 | 2970 | 3360 | 3650 |
| 2026-04-26 23:30 | 4.71 | 1640 | 3950 (2011) | 171 (1984) | 1610 | 344 | 391 | 578 | 627 | 1220 | 2660 | 2970 | 3360 | 3650 |
| 2026-04-26 22:30 | 4.70 | 1630 | 4880 (2011) | 179 (1984) | 1680 | 293 | 432 | 619 | 635 | 1200 | 2910 | 3080 | 3500 | 3670 |
| 2026-04-26 21:30 | 4.70 | 1630 | 4880 (2011) | 179 (1984) | 1680 | 293 | 432 | 619 | 635 | 1200 | 2910 | 3080 | 3500 | 3670 |
| 2026-04-26 20:30 | 4.68 | 1620 | 4880 (2011) | 179 (1984) | 1680 | 293 | 432 | 619 | 635 | 1200 | 2910 | 3080 | 3500 | 3670 |
| 2026-04-26 19:30 | 4.70 | 1630 | 4880 (2011) | 179 (1984) | 1680 | 293 | 432 | 619 | 635 | 1200 | 2910 | 3080 | 3500 | 3670 |
| 2026-04-26 18:30 | 4.71 | 1640 | 4880 (2011) | 179 (1984) | 1680 | 293 | 432 | 619 | 635 | 1200 | 2910 | 3080 | 3500 | 3670 |
| 2026-04-26 17:30 | 4.70 | 1630 | 4880 (2011) | 179 (1984) | 1680 | 293 | 432 | 619 | 635 | 1200 | 2910 | 3080 | 3500 | 3670 |
| 2026-04-26 16:30 | 4.72 | 1650 | 4880 (2011) | 179 (1984) | 1680 | 293 | 432 | 619 | 635 | 1200 | 2910 | 3080 | 3500 | 3670 |
| 2026-04-26 15:30 | 4.71 | 1640 | 4880 (2011) | 179 (1984) | 1680 | 293 | 432 | 619 | 635 | 1200 | 2910 | 3080 | 3500 | 3670 |
| 2026-04-26 14:30 | 4.73 | 1650 | 4880 (2011) | 179 (1984) | 1680 | 293 | 432 | 619 | 635 | 1200 | 2910 | 3080 | 3500 | 3670 |
| 2026-04-26 13:30 | 4.71 | 1640 | 4880 (2011) | 179 (1984) | 1680 | 293 | 432 | 619 | 635 | 1200 | 2910 | 3080 | 3500 | 3670 |
| 2026-04-26 12:30 | 4.71 | 1640 | 4880 (2011) | 179 (1984) | 1680 | 293 | 432 | 619 | 635 | 1200 | 2910 | 3080 | 3500 | 3670 |
| 2026-04-26 11:30 | 4.71 | 1640 | 4880 (2011) | 179 (1984) | 1680 | 293 | 432 | 619 | 635 | 1200 | 2910 | 3080 | 3500 | 3670 |
| 2026-04-26 10:30 | 4.72 | 1650 | 4880 (2011) | 179 (1984) | 1680 | 293 | 432 | 619 | 635 | 1200 | 2910 | 3080 | 3500 | 3670 |
| 2026-04-26 09:30 | 4.72 | 1650 | 4880 (2011) | 179 (1984) | 1680 | 293 | 432 | 619 | 635 | 1200 | 2910 | 3080 | 3500 | 3670 |
| 2026-04-26 08:30 | 4.74 | 1660 | 4880 (2011) | 179 (1984) | 1680 | 293 | 432 | 619 | 635 | 1200 | 2910 | 3080 | 3500 | 3670 |
| 2026-04-26 07:30 | 4.74 | 1660 | 4880 (2011) | 179 (1984) | 1680 | 293 | 432 | 619 | 635 | 1200 | 2910 | 3080 | 3500 | 3670 |
| 2026-04-26 06:30 | 4.75 | 1670 | 4880 (2011) | 179 (1984) | 1680 | 293 | 432 | 619 | 635 | 1200 | 2910 | 3080 | 3500 | 3670 |
| 2026-04-26 05:30 | 4.74 | 1660 | 4880 (2011) | 179 (1984) | 1680 | 293 | 432 | 619 | 635 | 1200 | 2910 | 3080 | 3500 | 3670 |
| 2026-04-26 04:30 | 4.73 | 1650 | 4880 (2011) | 179 (1984) | 1680 | 293 | 432 | 619 | 635 | 1200 | 2910 | 3080 | 3500 | 3670 |
| 2026-04-26 03:30 | 4.76 | 1680 | 4880 (2011) | 179 (1984) | 1680 | 293 | 432 | 619 | 635 | 1200 | 2910 | 3080 | 3500 | 3670 |
| 2026-04-26 02:30 | 4.76 | 1680 | 4880 (2011) | 179 (1984) | 1680 | 293 | 432 | 619 | 635 | 1200 | 2910 | 3080 | 3500 | 3670 |
| 2026-04-26 01:30 | 4.77 | 1680 | 4880 (2011) | 179 (1984) | 1680 | 293 | 432 | 619 | 635 | 1200 | 2910 | 3080 | 3500 | 3670 |
| 2026-04-26 00:30 | 4.77 | 1680 | 4880 (2011) | 179 (1984) | 1680 | 293 | 432 | 619 | 635 | 1200 | 2910 | 3080 | 3500 | 3670 |
| 2026-04-25 23:30 | 4.78 | 1690 | 4880 (2011) | 179 (1984) | 1680 | 293 | 432 | 619 | 635 | 1200 | 2910 | 3080 | 3500 | 3670 |
| 2026-04-25 22:30 | 4.80 | 1700 | 4500 (2011) | 198 (1984) | 1680 | 336 | 515 | 667 | 683 | 1130 | 2760 | 2880 | 3510 | 3610 |
| 2026-04-25 21:30 | 4.82 | 1720 | 4500 (2011) | 198 (1984) | 1680 | 336 | 515 | 667 | 683 | 1130 | 2760 | 2880 | 3510 | 3610 |
| 2026-04-25 20:30 | 4.84 | 1730 | 4500 (2011) | 198 (1984) | 1680 | 336 | 515 | 667 | 683 | 1130 | 2760 | 2880 | 3510 | 3610 |
| 2026-04-25 19:30 | 4.90 | 1770 | 4500 (2011) | 198 (1984) | 1680 | 336 | 515 | 667 | 683 | 1130 | 2760 | 2880 | 3510 | 3610 |
| 2026-04-25 18:30 | 4.95 | 1810 | 4500 (2011) | 198 (1984) | 1680 | 336 | 515 | 667 | 683 | 1130 | 2760 | 2880 | 3510 | 3610 |
| 2026-04-25 17:30 | 5.03 | 1870 | 4500 (2011) | 198 (1984) | 1680 | 336 | 515 | 667 | 683 | 1130 | 2760 | 2880 | 3510 | 3610 |
| 2026-04-25 16:30 | 5.17 | 1970 | 4500 (2011) | 198 (1984) | 1680 | 336 | 515 | 667 | 683 | 1130 | 2760 | 2880 | 3510 | 3610 |
| 2026-04-25 15:30 | 5.32 | 2080 | 4500 (2011) | 198 (1984) | 1680 | 336 | 515 | 667 | 683 | 1130 | 2760 | 2880 | 3510 | 3610 |
| 2026-04-25 14:30 | 5.48 | 2200 | 4500 (2011) | 198 (1984) | 1680 | 336 | 515 | 667 | 683 | 1130 | 2760 | 2880 | 3510 | 3610 |
| 2026-04-25 13:30 | 5.61 | 2300 | 4500 (2011) | 198 (1984) | 1680 | 336 | 515 | 667 | 683 | 1130 | 2760 | 2880 | 3510 | 3610 |
| 2026-04-25 12:30 | 5.64 | 2320 | 4500 (2011) | 198 (1984) | 1680 | 336 | 515 | 667 | 683 | 1130 | 2760 | 2880 | 3510 | 3610 |
| 2026-04-25 11:30 | 5.68 | 2360 | 4500 (2011) | 198 (1984) | 1680 | 336 | 515 | 667 | 683 | 1130 | 2760 | 2880 | 3510 | 3610 |
| 2026-04-25 10:30 | 5.66 | 2340 | 4500 (2011) | 198 (1984) | 1680 | 336 | 515 | 667 | 683 | 1130 | 2760 | 2880 | 3510 | 3610 |
| 2026-04-25 09:30 | 5.67 | 2350 | 4500 (2011) | 198 (1984) | 1680 | 336 | 515 | 667 | 683 | 1130 | 2760 | 2880 | 3510 | 3610 |
| 2026-04-25 08:30 | 5.67 | 2350 | 4500 (2011) | 198 (1984) | 1680 | 336 | 515 | 667 | 683 | 1130 | 2760 | 2880 | 3510 | 3610 |
| 2026-04-25 07:30 | 5.68 | 2360 | 4500 (2011) | 198 (1984) | 1680 | 336 | 515 | 667 | 683 | 1130 | 2760 | 2880 | 3510 | 3610 |
| 2026-04-25 06:30 | 5.68 | 2360 | 4500 (2011) | 198 (1984) | 1680 | 336 | 515 | 667 | 683 | 1130 | 2760 | 2880 | 3510 | 3610 |
| 2026-04-25 05:30 | 5.68 | 2360 | 4500 (2011) | 198 (1984) | 1680 | 336 | 515 | 667 | 683 | 1130 | 2760 | 2880 | 3510 | 3610 |
| 2026-04-25 04:30 | 5.70 | 2370 | 4500 (2011) | 198 (1984) | 1680 | 336 | 515 | 667 | 683 | 1130 | 2760 | 2880 | 3510 | 3610 |
| 2026-04-25 03:30 | 5.69 | 2360 | 4500 (2011) | 198 (1984) | 1680 | 336 | 515 | 667 | 683 | 1130 | 2760 | 2880 | 3510 | 3610 |
| 2026-04-25 02:30 | 5.70 | 2370 | 4500 (2011) | 198 (1984) | 1680 | 336 | 515 | 667 | 683 | 1130 | 2760 | 2880 | 3510 | 3610 |
| 2026-04-25 01:30 | 5.70 | 2370 | 4500 (2011) | 198 (1984) | 1680 | 336 | 515 | 667 | 683 | 1130 | 2760 | 2880 | 3510 | 3610 |
| 2026-04-25 00:30 | 5.71 | 2380 | 4500 (2011) | 198 (1984) | 1680 | 336 | 515 | 667 | 683 | 1130 | 2760 | 2880 | 3510 | 3610 |
| 2026-04-24 23:30 | 5.72 | 2390 | 4500 (2011) | 198 (1984) | 1680 | 336 | 515 | 667 | 683 | 1130 | 2760 | 2880 | 3510 | 3610 |
| 2026-04-24 22:30 | 5.73 | 2390 | 6140 (2011) | 242 (1984) | 1660 | 372 | 608 | 696 | 724 | 1090 | 2550 | 2720 | 3340 | 3650 |
| 2026-04-24 21:30 | 5.75 | 2410 | 6140 (2011) | 242 (1984) | 1660 | 372 | 608 | 696 | 724 | 1090 | 2550 | 2720 | 3340 | 3650 |
| 2026-04-24 20:30 | 5.76 | 2420 | 6140 (2011) | 242 (1984) | 1660 | 372 | 608 | 696 | 724 | 1090 | 2550 | 2720 | 3340 | 3650 |
| 2026-04-24 19:30 | 5.79 | 2440 | 6140 (2011) | 242 (1984) | 1660 | 372 | 608 | 696 | 724 | 1090 | 2550 | 2720 | 3340 | 3650 |
| 2026-04-24 18:30 | 5.79 | 2440 | 6140 (2011) | 242 (1984) | 1660 | 372 | 608 | 696 | 724 | 1090 | 2550 | 2720 | 3340 | 3650 |
| 2026-04-24 17:30 | 5.83 | 2470 | 6140 (2011) | 242 (1984) | 1660 | 372 | 608 | 696 | 724 | 1090 | 2550 | 2720 | 3340 | 3650 |
| 2026-04-24 16:30 | 5.85 | 2490 | 6140 (2011) | 242 (1984) | 1660 | 372 | 608 | 696 | 724 | 1090 | 2550 | 2720 | 3340 | 3650 |
| 2026-04-24 15:30 | 5.90 | 2530 | 6140 (2011) | 242 (1984) | 1660 | 372 | 608 | 696 | 724 | 1090 | 2550 | 2720 | 3340 | 3650 |
| 2026-04-24 14:30 | 5.93 | 2560 | 6140 (2011) | 242 (1984) | 1660 | 372 | 608 | 696 | 724 | 1090 | 2550 | 2720 | 3340 | 3650 |
| 2026-04-24 13:30 | 6.02 | 2630 | 6140 (2011) | 242 (1984) | 1660 | 372 | 608 | 696 | 724 | 1090 | 2550 | 2720 | 3340 | 3650 |
| 2026-04-24 12:30 | 6.13 | 2720 | 6140 (2011) | 242 (1984) | 1660 | 372 | 608 | 696 | 724 | 1090 | 2550 | 2720 | 3340 | 3650 |
| 2026-04-24 11:30 | 6.26 | 2830 | 6140 (2011) | 242 (1984) | 1660 | 372 | 608 | 696 | 724 | 1090 | 2550 | 2720 | 3340 | 3650 |
| 2026-04-24 10:30 | 6.38 | 2930 | 6140 (2011) | 242 (1984) | 1660 | 372 | 608 | 696 | 724 | 1090 | 2550 | 2720 | 3340 | 3650 |
| 2026-04-24 09:30 | 6.43 | 2970 | 6140 (2011) | 242 (1984) | 1660 | 372 | 608 | 696 | 724 | 1090 | 2550 | 2720 | 3340 | 3650 |
| 2026-04-24 08:30 | 6.41 | 2960 | 6140 (2011) | 242 (1984) | 1660 | 372 | 608 | 696 | 724 | 1090 | 2550 | 2720 | 3340 | 3650 |
| 2026-04-24 07:30 | 6.39 | 2940 | 6140 (2011) | 242 (1984) | 1660 | 372 | 608 | 696 | 724 | 1090 | 2550 | 2720 | 3340 | 3650 |
| 2026-04-24 06:30 | 6.35 | 2910 | 6140 (2011) | 242 (1984) | 1660 | 372 | 608 | 696 | 724 | 1090 | 2550 | 2720 | 3340 | 3650 |
| 2026-04-24 05:30 | 6.35 | 2910 | 6140 (2011) | 242 (1984) | 1660 | 372 | 608 | 696 | 724 | 1090 | 2550 | 2720 | 3340 | 3650 |
| 2026-04-24 04:30 | 6.36 | 2910 | 6140 (2011) | 242 (1984) | 1660 | 372 | 608 | 696 | 724 | 1090 | 2550 | 2720 | 3340 | 3650 |
| 2026-04-24 03:30 | 6.35 | 2910 | 6140 (2011) | 242 (1984) | 1660 | 372 | 608 | 696 | 724 | 1090 | 2550 | 2720 | 3340 | 3650 |
| 2026-04-24 02:30 | 6.37 | 2920 | 6140 (2011) | 242 (1984) | 1660 | 372 | 608 | 696 | 724 | 1090 | 2550 | 2720 | 3340 | 3650 |
| 2026-04-24 01:30 | 6.40 | 2950 | 6140 (2011) | 242 (1984) | 1660 | 372 | 608 | 696 | 724 | 1090 | 2550 | 2720 | 3340 | 3650 |
| 2026-04-24 00:30 | 6.41 | 2960 | 6140 (2011) | 242 (1984) | 1660 | 372 | 608 | 696 | 724 | 1090 | 2550 | 2720 | 3340 | 3650 |
| 2026-04-23 23:30 | 6.45 | 2990 | 6140 (2011) | 242 (1984) | 1660 | 372 | 608 | 696 | 724 | 1090 | 2550 | 2720 | 3340 | 3650 |
| 2026-04-23 22:30 | 6.48 | 3020 | 3770 (1950) | 338 (1963) | 1650 | 443 | 587 | 719 | 746 | 1170 | 2660 | 3070 | 3440 | 3560 |
| 2026-04-23 21:30 | 6.51 | 3040 | 3770 (1950) | 338 (1963) | 1650 | 443 | 587 | 719 | 746 | 1170 | 2660 | 3070 | 3440 | 3560 |
| 2026-04-23 20:30 | 6.60 | 3120 | 3770 (1950) | 338 (1963) | 1650 | 443 | 587 | 719 | 746 | 1170 | 2660 | 3070 | 3440 | 3560 |
| 2026-04-23 19:30 | 6.67 | 3180 | 3770 (1950) | 338 (1963) | 1650 | 443 | 587 | 719 | 746 | 1170 | 2660 | 3070 | 3440 | 3560 |
| 2026-04-23 18:30 | 6.76 | 3260 | 3770 (1950) | 338 (1963) | 1650 | 443 | 587 | 719 | 746 | 1170 | 2660 | 3070 | 3440 | 3560 |
| 2026-04-23 17:30 | 6.83 | 3330 | 3770 (1950) | 338 (1963) | 1650 | 443 | 587 | 719 | 746 | 1170 | 2660 | 3070 | 3440 | 3560 |
| 2026-04-23 16:30 | 6.86 | 3350 | 3770 (1950) | 338 (1963) | 1650 | 443 | 587 | 719 | 746 | 1170 | 2660 | 3070 | 3440 | 3560 |
| 2026-04-23 15:30 | 6.87 | 3360 | 3770 (1950) | 338 (1963) | 1650 | 443 | 587 | 719 | 746 | 1170 | 2660 | 3070 | 3440 | 3560 |
| 2026-04-23 14:30 | 6.88 | 3370 | 3770 (1950) | 338 (1963) | 1650 | 443 | 587 | 719 | 746 | 1170 | 2660 | 3070 | 3440 | 3560 |
| 2026-04-23 13:30 | 6.90 | 3390 | 3770 (1950) | 338 (1963) | 1650 | 443 | 587 | 719 | 746 | 1170 | 2660 | 3070 | 3440 | 3560 |
| 2026-04-23 12:30 | 6.91 | 3400 | 3770 (1950) | 338 (1963) | 1650 | 443 | 587 | 719 | 746 | 1170 | 2660 | 3070 | 3440 | 3560 |
| 2026-04-23 11:30 | 6.91 | 3400 | 3770 (1950) | 338 (1963) | 1650 | 443 | 587 | 719 | 746 | 1170 | 2660 | 3070 | 3440 | 3560 |
| 2026-04-23 10:30 | 6.90 | 3390 | 3770 (1950) | 338 (1963) | 1650 | 443 | 587 | 719 | 746 | 1170 | 2660 | 3070 | 3440 | 3560 |
| 2026-04-23 09:30 | 6.91 | 3400 | 3770 (1950) | 338 (1963) | 1650 | 443 | 587 | 719 | 746 | 1170 | 2660 | 3070 | 3440 | 3560 |
| 2026-04-23 08:30 | 6.92 | 3410 | 3770 (1950) | 338 (1963) | 1650 | 443 | 587 | 719 | 746 | 1170 | 2660 | 3070 | 3440 | 3560 |
| 2026-04-23 07:30 | 6.92 | 3410 | 3770 (1950) | 338 (1963) | 1650 | 443 | 587 | 719 | 746 | 1170 | 2660 | 3070 | 3440 | 3560 |
| 2026-04-23 06:30 | 6.93 | 3420 | 3770 (1950) | 338 (1963) | 1650 | 443 | 587 | 719 | 746 | 1170 | 2660 | 3070 | 3440 | 3560 |
| 2026-04-23 05:30 | 6.92 | 3410 | 3770 (1950) | 338 (1963) | 1650 | 443 | 587 | 719 | 746 | 1170 | 2660 | 3070 | 3440 | 3560 |
| 2026-04-23 04:30 | 6.93 | 3420 | 3770 (1950) | 338 (1963) | 1650 | 443 | 587 | 719 | 746 | 1170 | 2660 | 3070 | 3440 | 3560 |
| 2026-04-23 03:30 | 6.96 | 3440 | 3770 (1950) | 338 (1963) | 1650 | 443 | 587 | 719 | 746 | 1170 | 2660 | 3070 | 3440 | 3560 |
| 2026-04-23 02:30 | 6.92 | 3410 | 3770 (1950) | 338 (1963) | 1650 | 443 | 587 | 719 | 746 | 1170 | 2660 | 3070 | 3440 | 3560 |
| 2026-04-23 01:30 | 6.95 | 3440 | 3770 (1950) | 338 (1963) | 1650 | 443 | 587 | 719 | 746 | 1170 | 2660 | 3070 | 3440 | 3560 |
| 2026-04-23 00:30 | 6.94 | 3430 | 3770 (1950) | 338 (1963) | 1650 | 443 | 587 | 719 | 746 | 1170 | 2660 | 3070 | 3440 | 3560 |
| 2026-04-22 23:30 | 6.98 | 3460 | 3770 (1950) | 338 (1963) | 1650 | 443 | 587 | 719 | 746 | 1170 | 2660 | 3070 | 3440 | 3560 |
| 2026-04-22 22:30 | 6.95 | 3440 | 3820 (1977) | 348 (1963) | 1690 | 487 | 660 | 797 | 813 | 1220 | 2530 | 2690 | 3510 | 3670 |
| 2026-04-22 21:30 | 6.97 | 3450 | 3820 (1977) | 348 (1963) | 1690 | 487 | 660 | 797 | 813 | 1220 | 2530 | 2690 | 3510 | 3670 |
| 2026-04-22 20:30 | 6.97 | 3450 | 3820 (1977) | 348 (1963) | 1690 | 487 | 660 | 797 | 813 | 1220 | 2530 | 2690 | 3510 | 3670 |
| 2026-04-22 19:30 | 6.97 | 3450 | 3820 (1977) | 348 (1963) | 1690 | 487 | 660 | 797 | 813 | 1220 | 2530 | 2690 | 3510 | 3670 |
| 2026-04-22 18:30 | 6.96 | 3440 | 3820 (1977) | 348 (1963) | 1690 | 487 | 660 | 797 | 813 | 1220 | 2530 | 2690 | 3510 | 3670 |
| 2026-04-22 17:30 | 6.97 | 3450 | 3820 (1977) | 348 (1963) | 1690 | 487 | 660 | 797 | 813 | 1220 | 2530 | 2690 | 3510 | 3670 |
| 2026-04-22 16:30 | 6.99 | 3470 | 3820 (1977) | 348 (1963) | 1690 | 487 | 660 | 797 | 813 | 1220 | 2530 | 2690 | 3510 | 3670 |
| 2026-04-22 15:30 | 6.98 | 3460 | 3820 (1977) | 348 (1963) | 1690 | 487 | 660 | 797 | 813 | 1220 | 2530 | 2690 | 3510 | 3670 |
| 2026-04-22 14:30 | 6.99 | 3470 | 3820 (1977) | 348 (1963) | 1690 | 487 | 660 | 797 | 813 | 1220 | 2530 | 2690 | 3510 | 3670 |
| 2026-04-22 13:30 | 7.00 | 3480 | 3820 (1977) | 348 (1963) | 1690 | 487 | 660 | 797 | 813 | 1220 | 2530 | 2690 | 3510 | 3670 |
| 2026-04-22 12:30 | 7.00 | 3480 | 3820 (1977) | 348 (1963) | 1690 | 487 | 660 | 797 | 813 | 1220 | 2530 | 2690 | 3510 | 3670 |
| 2026-04-22 11:30 | 7.00 | 3480 | 3820 (1977) | 348 (1963) | 1690 | 487 | 660 | 797 | 813 | 1220 | 2530 | 2690 | 3510 | 3670 |
| 2026-04-22 10:30 | 7.00 | 3480 | 3820 (1977) | 348 (1963) | 1690 | 487 | 660 | 797 | 813 | 1220 | 2530 | 2690 | 3510 | 3670 |
| 2026-04-22 09:30 | 7.02 | 3500 | 3820 (1977) | 348 (1963) | 1690 | 487 | 660 | 797 | 813 | 1220 | 2530 | 2690 | 3510 | 3670 |
| 2026-04-22 08:30 | 7.01 | 3490 | 3820 (1977) | 348 (1963) | 1690 | 487 | 660 | 797 | 813 | 1220 | 2530 | 2690 | 3510 | 3670 |
| 2026-04-22 07:30 | 7.02 | 3500 | 3820 (1977) | 348 (1963) | 1690 | 487 | 660 | 797 | 813 | 1220 | 2530 | 2690 | 3510 | 3670 |
| 2026-04-22 06:30 | 7.02 | 3500 | 3820 (1977) | 348 (1963) | 1690 | 487 | 660 | 797 | 813 | 1220 | 2530 | 2690 | 3510 | 3670 |
| 2026-04-22 05:30 | 7.02 | 3500 | 3820 (1977) | 348 (1963) | 1690 | 487 | 660 | 797 | 813 | 1220 | 2530 | 2690 | 3510 | 3670 |
| 2026-04-22 04:30 | 7.01 | 3490 | 3820 (1977) | 348 (1963) | 1690 | 487 | 660 | 797 | 813 | 1220 | 2530 | 2690 | 3510 | 3670 |
| 2026-04-22 03:30 | 7.03 | 3510 | 3820 (1977) | 348 (1963) | 1690 | 487 | 660 | 797 | 813 | 1220 | 2530 | 2690 | 3510 | 3670 |
| 2026-04-22 02:30 | 7.00 | 3480 | 3820 (1977) | 348 (1963) | 1690 | 487 | 660 | 797 | 813 | 1220 | 2530 | 2690 | 3510 | 3670 |
| 2026-04-22 01:30 | 7.00 | 3480 | 3820 (1977) | 348 (1963) | 1690 | 487 | 660 | 797 | 813 | 1220 | 2530 | 2690 | 3510 | 3670 |
| 2026-04-22 00:30 | 7.00 | 3480 | 3820 (1977) | 348 (1963) | 1690 | 487 | 660 | 797 | 813 | 1220 | 2530 | 2690 | 3510 | 3670 |
| 2026-04-21 23:30 | 6.95 | 3440 | 3820 (1977) | 348 (1963) | 1690 | 487 | 660 | 797 | 813 | 1220 | 2530 | 2690 | 3510 | 3670 |
| 2026-04-21 22:30 | 6.92 | 3410 | 3870 (1977) | 351 (1963) | 1620 | 485 | 657 | 760 | 836 | 1260 | 2350 | 2700 | 3450 | 3650 |
| 2026-04-21 21:30 | 6.88 | 3370 | 3870 (1977) | 351 (1963) | 1620 | 485 | 657 | 760 | 836 | 1260 | 2350 | 2700 | 3450 | 3650 |
| 2026-04-21 20:30 | 6.81 | 3310 | 3870 (1977) | 351 (1963) | 1620 | 485 | 657 | 760 | 836 | 1260 | 2350 | 2700 | 3450 | 3650 |
| 2026-04-21 19:30 | 6.72 | 3230 | 3870 (1977) | 351 (1963) | 1620 | 485 | 657 | 760 | 836 | 1260 | 2350 | 2700 | 3450 | 3650 |
| 2026-04-21 18:30 | 6.58 | 3100 | 3870 (1977) | 351 (1963) | 1620 | 485 | 657 | 760 | 836 | 1260 | 2350 | 2700 | 3450 | 3650 |
| 2026-04-21 17:30 | 6.43 | 2970 | 3870 (1977) | 351 (1963) | 1620 | 485 | 657 | 760 | 836 | 1260 | 2350 | 2700 | 3450 | 3650 |
| 2026-04-21 16:30 | 6.24 | 2810 | 3870 (1977) | 351 (1963) | 1620 | 485 | 657 | 760 | 836 | 1260 | 2350 | 2700 | 3450 | 3650 |
| 2026-04-21 15:30 | 6.03 | 2640 | 3870 (1977) | 351 (1963) | 1620 | 485 | 657 | 760 | 836 | 1260 | 2350 | 2700 | 3450 | 3650 |
| 2026-04-21 14:30 | 5.91 | 2540 | 3870 (1977) | 351 (1963) | 1620 | 485 | 657 | 760 | 836 | 1260 | 2350 | 2700 | 3450 | 3650 |
| 2026-04-21 13:30 | 5.85 | 2490 | 3870 (1977) | 351 (1963) | 1620 | 485 | 657 | 760 | 836 | 1260 | 2350 | 2700 | 3450 | 3650 |
| 2026-04-21 12:30 | 5.77 | 2430 | 3870 (1977) | 351 (1963) | 1620 | 485 | 657 | 760 | 836 | 1260 | 2350 | 2700 | 3450 | 3650 |
| 2026-04-21 11:30 | 5.64 | 2320 | 3870 (1977) | 351 (1963) | 1620 | 485 | 657 | 760 | 836 | 1260 | 2350 | 2700 | 3450 | 3650 |
| 2026-04-21 10:30 | 5.54 | 2250 | 3870 (1977) | 351 (1963) | 1620 | 485 | 657 | 760 | 836 | 1260 | 2350 | 2700 | 3450 | 3650 |
| 2026-04-21 09:30 | 5.50 | 2220 | 3870 (1977) | 351 (1963) | 1620 | 485 | 657 | 760 | 836 | 1260 | 2350 | 2700 | 3450 | 3650 |
| 2026-04-21 08:30 | 5.50 | 2220 | 3870 (1977) | 351 (1963) | 1620 | 485 | 657 | 760 | 836 | 1260 | 2350 | 2700 | 3450 | 3650 |
| 2026-04-21 07:30 | 5.49 | 2210 | 3870 (1977) | 351 (1963) | 1620 | 485 | 657 | 760 | 836 | 1260 | 2350 | 2700 | 3450 | 3650 |
| 2026-04-21 06:30 | 5.51 | 2220 | 3870 (1977) | 351 (1963) | 1620 | 485 | 657 | 760 | 836 | 1260 | 2350 | 2700 | 3450 | 3650 |
| 2026-04-21 05:30 | 5.50 | 2220 | 3870 (1977) | 351 (1963) | 1620 | 485 | 657 | 760 | 836 | 1260 | 2350 | 2700 | 3450 | 3650 |
| 2026-04-21 04:30 | 5.48 | 2200 | 3870 (1977) | 351 (1963) | 1620 | 485 | 657 | 760 | 836 | 1260 | 2350 | 2700 | 3450 | 3650 |
| 2026-04-21 03:30 | 5.49 | 2210 | 3870 (1977) | 351 (1963) | 1620 | 485 | 657 | 760 | 836 | 1260 | 2350 | 2700 | 3450 | 3650 |
| 2026-04-21 02:30 | 5.48 | 2200 | 3870 (1977) | 351 (1963) | 1620 | 485 | 657 | 760 | 836 | 1260 | 2350 | 2700 | 3450 | 3650 |
| 2026-04-21 01:30 | 5.47 | 2190 | 3870 (1977) | 351 (1963) | 1620 | 485 | 657 | 760 | 836 | 1260 | 2350 | 2700 | 3450 | 3650 |
| 2026-04-21 00:30 | 5.48 | 2200 | 3870 (1977) | 351 (1963) | 1620 | 485 | 657 | 760 | 836 | 1260 | 2350 | 2700 | 3450 | 3650 |
| 2026-04-20 23:30 | 5.47 | 2190 | 3870 (1977) | 351 (1963) | 1620 | 485 | 657 | 760 | 836 | 1260 | 2350 | 2700 | 3450 | 3650 |
| 2026-04-20 22:30 | 5.46 | 2180 | 4900 (1992) | 354 (1963) | 1710 | 498 | 646 | 816 | 850 | 1220 | 2370 | 3060 | 3570 | 3760 |
| 2026-04-20 21:30 | 5.45 | 2180 | 4900 (1992) | 354 (1963) | 1710 | 498 | 646 | 816 | 850 | 1220 | 2370 | 3060 | 3570 | 3760 |
| 2026-04-20 20:30 | 5.43 | 2160 | 4900 (1992) | 354 (1963) | 1710 | 498 | 646 | 816 | 850 | 1220 | 2370 | 3060 | 3570 | 3760 |
| 2026-04-20 19:30 | 5.40 | 2140 | 4900 (1992) | 354 (1963) | 1710 | 498 | 646 | 816 | 850 | 1220 | 2370 | 3060 | 3570 | 3760 |
| 2026-04-20 18:30 | 5.38 | 2120 | 4900 (1992) | 354 (1963) | 1710 | 498 | 646 | 816 | 850 | 1220 | 2370 | 3060 | 3570 | 3760 |
| 2026-04-20 17:30 | 5.35 | 2100 | 4900 (1992) | 354 (1963) | 1710 | 498 | 646 | 816 | 850 | 1220 | 2370 | 3060 | 3570 | 3760 |
| 2026-04-20 16:30 | 5.29 | 2060 | 4900 (1992) | 354 (1963) | 1710 | 498 | 646 | 816 | 850 | 1220 | 2370 | 3060 | 3570 | 3760 |
| 2026-04-20 15:30 | 5.21 | 2000 | 4900 (1992) | 354 (1963) | 1710 | 498 | 646 | 816 | 850 | 1220 | 2370 | 3060 | 3570 | 3760 |
| 2026-04-20 14:30 | 5.10 | 1920 | 4900 (1992) | 354 (1963) | 1710 | 498 | 646 | 816 | 850 | 1220 | 2370 | 3060 | 3570 | 3760 |
| 2026-04-20 13:30 | 4.95 | 1810 | 4900 (1992) | 354 (1963) | 1710 | 498 | 646 | 816 | 850 | 1220 | 2370 | 3060 | 3570 | 3760 |
| 2026-04-20 12:30 | 4.75 | 1670 | 4900 (1992) | 354 (1963) | 1710 | 498 | 646 | 816 | 850 | 1220 | 2370 | 3060 | 3570 | 3760 |
| 2026-04-20 11:30 | 4.48 | 1490 | 4900 (1992) | 354 (1963) | 1710 | 498 | 646 | 816 | 850 | 1220 | 2370 | 3060 | 3570 | 3760 |
| 2026-04-20 10:30 | 4.27 | 1350 | 4900 (1992) | 354 (1963) | 1710 | 498 | 646 | 816 | 850 | 1220 | 2370 | 3060 | 3570 | 3760 |
| 2026-04-20 09:30 | 4.15 | 1280 | 4900 (1992) | 354 (1963) | 1710 | 498 | 646 | 816 | 850 | 1220 | 2370 | 3060 | 3570 | 3760 |
| 2026-04-20 08:30 | 4.17 | 1290 | 4900 (1992) | 354 (1963) | 1710 | 498 | 646 | 816 | 850 | 1220 | 2370 | 3060 | 3570 | 3760 |
| 2026-04-20 07:30 | 4.16 | 1280 | 4900 (1992) | 354 (1963) | 1710 | 498 | 646 | 816 | 850 | 1220 | 2370 | 3060 | 3570 | 3760 |
| 2026-04-20 06:30 | 4.16 | 1280 | 4900 (1992) | 354 (1963) | 1710 | 498 | 646 | 816 | 850 | 1220 | 2370 | 3060 | 3570 | 3760 |
| 2026-04-20 05:30 | 4.16 | 1280 | 4900 (1992) | 354 (1963) | 1710 | 498 | 646 | 816 | 850 | 1220 | 2370 | 3060 | 3570 | 3760 |
| 2026-04-20 04:30 | 4.17 | 1290 | 4900 (1992) | 354 (1963) | 1710 | 498 | 646 | 816 | 850 | 1220 | 2370 | 3060 | 3570 | 3760 |
| 2026-04-20 03:30 | 4.16 | 1280 | 4900 (1992) | 354 (1963) | 1710 | 498 | 646 | 816 | 850 | 1220 | 2370 | 3060 | 3570 | 3760 |
| 2026-04-20 02:30 | 4.16 | 1280 | 4900 (1992) | 354 (1963) | 1710 | 498 | 646 | 816 | 850 | 1220 | 2370 | 3060 | 3570 | 3760 |
| 2026-04-20 01:30 | 4.16 | 1280 | 4900 (1992) | 354 (1963) | 1710 | 498 | 646 | 816 | 850 | 1220 | 2370 | 3060 | 3570 | 3760 |
| 2026-04-20 00:30 | 4.16 | 1280 | 4900 (1992) | 354 (1963) | 1710 | 498 | 646 | 816 | 850 | 1220 | 2370 | 3060 | 3570 | 3760 |
| 2026-04-19 23:30 | 4.18 | 1300 | 4900 (1992) | 354 (1963) | 1710 | 498 | 646 | 816 | 850 | 1220 | 2370 | 3060 | 3570 | 3760 |
| 2026-04-19 22:30 | 4.15 | 1280 | 3860 (1950) | 385 (1981) | 1680 | 512 | 630 | 804 | 861 | 1180 | 2510 | 2980 | 3410 | 3730 |
| 2026-04-19 21:30 | 4.16 | 1280 | 3860 (1950) | 385 (1981) | 1680 | 512 | 630 | 804 | 861 | 1180 | 2510 | 2980 | 3410 | 3730 |
| 2026-04-19 20:30 | 4.15 | 1280 | 3860 (1950) | 385 (1981) | 1680 | 512 | 630 | 804 | 861 | 1180 | 2510 | 2980 | 3410 | 3730 |
| 2026-04-19 19:30 | 4.15 | 1280 | 3860 (1950) | 385 (1981) | 1680 | 512 | 630 | 804 | 861 | 1180 | 2510 | 2980 | 3410 | 3730 |
| 2026-04-19 18:30 | 4.17 | 1290 | 3860 (1950) | 385 (1981) | 1680 | 512 | 630 | 804 | 861 | 1180 | 2510 | 2980 | 3410 | 3730 |
| 2026-04-19 17:30 | 4.15 | 1280 | 3860 (1950) | 385 (1981) | 1680 | 512 | 630 | 804 | 861 | 1180 | 2510 | 2980 | 3410 | 3730 |
| 2026-04-19 16:30 | 4.16 | 1280 | 3860 (1950) | 385 (1981) | 1680 | 512 | 630 | 804 | 861 | 1180 | 2510 | 2980 | 3410 | 3730 |
| 2026-04-19 15:30 | 4.17 | 1290 | 3860 (1950) | 385 (1981) | 1680 | 512 | 630 | 804 | 861 | 1180 | 2510 | 2980 | 3410 | 3730 |
| 2026-04-19 14:30 | 4.18 | 1300 | 3860 (1950) | 385 (1981) | 1680 | 512 | 630 | 804 | 861 | 1180 | 2510 | 2980 | 3410 | 3730 |
| 2026-04-19 13:30 | 4.17 | 1290 | 3860 (1950) | 385 (1981) | 1680 | 512 | 630 | 804 | 861 | 1180 | 2510 | 2980 | 3410 | 3730 |
| 2026-04-19 12:30 | 4.18 | 1300 | 3860 (1950) | 385 (1981) | 1680 | 512 | 630 | 804 | 861 | 1180 | 2510 | 2980 | 3410 | 3730 |
| 2026-04-19 11:30 | 4.17 | 1290 | 3860 (1950) | 385 (1981) | 1680 | 512 | 630 | 804 | 861 | 1180 | 2510 | 2980 | 3410 | 3730 |
| 2026-04-19 10:30 | 4.17 | 1290 | 3860 (1950) | 385 (1981) | 1680 | 512 | 630 | 804 | 861 | 1180 | 2510 | 2980 | 3410 | 3730 |
| 2026-04-19 09:30 | 4.17 | 1290 | 3860 (1950) | 385 (1981) | 1680 | 512 | 630 | 804 | 861 | 1180 | 2510 | 2980 | 3410 | 3730 |
| 2026-04-19 08:30 | 4.18 | 1300 | 3860 (1950) | 385 (1981) | 1680 | 512 | 630 | 804 | 861 | 1180 | 2510 | 2980 | 3410 | 3730 |
| 2026-04-19 07:30 | 4.19 | 1300 | 3860 (1950) | 385 (1981) | 1680 | 512 | 630 | 804 | 861 | 1180 | 2510 | 2980 | 3410 | 3730 |
| 2026-04-19 06:30 | 4.19 | 1300 | 3860 (1950) | 385 (1981) | 1680 | 512 | 630 | 804 | 861 | 1180 | 2510 | 2980 | 3410 | 3730 |
| 2026-04-19 05:30 | 4.18 | 1300 | 3860 (1950) | 385 (1981) | 1680 | 512 | 630 | 804 | 861 | 1180 | 2510 | 2980 | 3410 | 3730 |
| 2026-04-19 04:30 | 4.20 | 1310 | 3860 (1950) | 385 (1981) | 1680 | 512 | 630 | 804 | 861 | 1180 | 2510 | 2980 | 3410 | 3730 |
| 2026-04-19 03:30 | 4.19 | 1300 | 3860 (1950) | 385 (1981) | 1680 | 512 | 630 | 804 | 861 | 1180 | 2510 | 2980 | 3410 | 3730 |
| 2026-04-19 02:30 | 4.18 | 1300 | 3860 (1950) | 385 (1981) | 1680 | 512 | 630 | 804 | 861 | 1180 | 2510 | 2980 | 3410 | 3730 |
| 2026-04-19 01:30 | 4.21 | 1310 | 3860 (1950) | 385 (1981) | 1680 | 512 | 630 | 804 | 861 | 1180 | 2510 | 2980 | 3410 | 3730 |
| 2026-04-19 00:30 | 4.23 | 1330 | 3860 (1950) | 385 (1981) | 1680 | 512 | 630 | 804 | 861 | 1180 | 2510 | 2980 | 3410 | 3730 |
| 2026-04-18 23:30 | 4.25 | 1340 | 3860 (1950) | 385 (1981) | 1680 | 512 | 630 | 804 | 861 | 1180 | 2510 | 2980 | 3410 | 3730 |
| 2026-04-18 22:30 | 4.28 | 1360 | 3860 (1950) | 395 (1981) | 1780 | 465 | 561 | 802 | 852 | 1320 | 2720 | 3270 | 3530 | 3760 |
| 2026-04-18 21:30 | 4.31 | 1380 | 3860 (1950) | 395 (1981) | 1780 | 465 | 561 | 802 | 852 | 1320 | 2720 | 3270 | 3530 | 3760 |
| 2026-04-18 20:30 | 4.33 | 1390 | 3860 (1950) | 395 (1981) | 1780 | 465 | 561 | 802 | 852 | 1320 | 2720 | 3270 | 3530 | 3760 |
| 2026-04-18 19:30 | 4.35 | 1400 | 3860 (1950) | 395 (1981) | 1780 | 465 | 561 | 802 | 852 | 1320 | 2720 | 3270 | 3530 | 3760 |
| 2026-04-18 18:30 | 4.39 | 1430 | 3860 (1950) | 395 (1981) | 1780 | 465 | 561 | 802 | 852 | 1320 | 2720 | 3270 | 3530 | 3760 |
| 2026-04-18 17:30 | 4.41 | 1440 | 3860 (1950) | 395 (1981) | 1780 | 465 | 561 | 802 | 852 | 1320 | 2720 | 3270 | 3530 | 3760 |
| 2026-04-18 16:30 | 4.47 | 1480 | 3860 (1950) | 395 (1981) | 1780 | 465 | 561 | 802 | 852 | 1320 | 2720 | 3270 | 3530 | 3760 |
| 2026-04-18 15:30 | 4.52 | 1510 | 3860 (1950) | 395 (1981) | 1780 | 465 | 561 | 802 | 852 | 1320 | 2720 | 3270 | 3530 | 3760 |
| 2026-04-18 14:30 | 4.54 | 1530 | 3860 (1950) | 395 (1981) | 1780 | 465 | 561 | 802 | 852 | 1320 | 2720 | 3270 | 3530 | 3760 |
| 2026-04-18 13:30 | 4.56 | 1540 | 3860 (1950) | 395 (1981) | 1780 | 465 | 561 | 802 | 852 | 1320 | 2720 | 3270 | 3530 | 3760 |
| 2026-04-18 12:30 | 4.54 | 1530 | 3860 (1950) | 395 (1981) | 1780 | 465 | 561 | 802 | 852 | 1320 | 2720 | 3270 | 3530 | 3760 |
| 2026-04-18 11:30 | 4.51 | 1510 | 3860 (1950) | 395 (1981) | 1780 | 465 | 561 | 802 | 852 | 1320 | 2720 | 3270 | 3530 | 3760 |
| 2026-04-18 10:30 | 4.50 | 1500 | 3860 (1950) | 395 (1981) | 1780 | 465 | 561 | 802 | 852 | 1320 | 2720 | 3270 | 3530 | 3760 |
| 2026-04-18 09:30 | 4.45 | 1470 | 3860 (1950) | 395 (1981) | 1780 | 465 | 561 | 802 | 852 | 1320 | 2720 | 3270 | 3530 | 3760 |
| 2026-04-18 08:30 | 4.32 | 1380 | 3860 (1950) | 395 (1981) | 1780 | 465 | 561 | 802 | 852 | 1320 | 2720 | 3270 | 3530 | 3760 |
| 2026-04-18 07:30 | 4.09 | 1240 | 3860 (1950) | 395 (1981) | 1780 | 465 | 561 | 802 | 852 | 1320 | 2720 | 3270 | 3530 | 3760 |
| 2026-04-18 06:30 | 3.99 | 1180 | 3860 (1950) | 395 (1981) | 1780 | 465 | 561 | 802 | 852 | 1320 | 2720 | 3270 | 3530 | 3760 |
| 2026-04-18 05:30 | 3.98 | 1170 | 3860 (1950) | 395 (1981) | 1780 | 465 | 561 | 802 | 852 | 1320 | 2720 | 3270 | 3530 | 3760 |
| 2026-04-18 04:30 | 3.97 | 1170 | 3860 (1950) | 395 (1981) | 1780 | 465 | 561 | 802 | 852 | 1320 | 2720 | 3270 | 3530 | 3760 |
| 2026-04-18 03:30 | 3.91 | 1130 | 3860 (1950) | 395 (1981) | 1780 | 465 | 561 | 802 | 852 | 1320 | 2720 | 3270 | 3530 | 3760 |
| 2026-04-18 02:30 | 3.87 | 1110 | 3860 (1950) | 395 (1981) | 1780 | 465 | 561 | 802 | 852 | 1320 | 2720 | 3270 | 3530 | 3760 |
| 2026-04-18 01:30 | 3.86 | 1100 | 3860 (1950) | 395 (1981) | 1780 | 465 | 561 | 802 | 852 | 1320 | 2720 | 3270 | 3530 | 3760 |
| 2026-04-18 00:30 | 3.86 | 1100 | 3860 (1950) | 395 (1981) | 1780 | 465 | 561 | 802 | 852 | 1320 | 2720 | 3270 | 3530 | 3760 |
| 2026-04-17 23:30 | 3.86 | 1100 | 3860 (1950) | 395 (1981) | 1780 | 465 | 561 | 802 | 852 | 1320 | 2720 | 3270 | 3530 | 3760 |
| 2026-04-17 22:30 | 3.85 | 1100 | 3950 (1975) | 400 (1981) | 1830 | 458 | 552 | 730 | 867 | 1650 | 2860 | 3050 | 3630 | 3820 |
| 2026-04-17 21:30 | 3.85 | 1100 | 3950 (1975) | 400 (1981) | 1830 | 458 | 552 | 730 | 867 | 1650 | 2860 | 3050 | 3630 | 3820 |
| 2026-04-17 20:30 | 3.83 | 1080 | 3950 (1975) | 400 (1981) | 1830 | 458 | 552 | 730 | 867 | 1650 | 2860 | 3050 | 3630 | 3820 |
| 2026-04-17 19:30 | 3.83 | 1080 | 3950 (1975) | 400 (1981) | 1830 | 458 | 552 | 730 | 867 | 1650 | 2860 | 3050 | 3630 | 3820 |
| 2026-04-17 18:30 | 3.80 | 1070 | 3950 (1975) | 400 (1981) | 1830 | 458 | 552 | 730 | 867 | 1650 | 2860 | 3050 | 3630 | 3820 |
| 2026-04-17 17:30 | 3.81 | 1070 | 3950 (1975) | 400 (1981) | 1830 | 458 | 552 | 730 | 867 | 1650 | 2860 | 3050 | 3630 | 3820 |
| 2026-04-17 16:30 | 3.78 | 1060 | 3950 (1975) | 400 (1981) | 1830 | 458 | 552 | 730 | 867 | 1650 | 2860 | 3050 | 3630 | 3820 |
| 2026-04-17 15:30 | 3.76 | 1040 | 3950 (1975) | 400 (1981) | 1830 | 458 | 552 | 730 | 867 | 1650 | 2860 | 3050 | 3630 | 3820 |
| 2026-04-17 14:30 | 3.72 | 1020 | 3950 (1975) | 400 (1981) | 1830 | 458 | 552 | 730 | 867 | 1650 | 2860 | 3050 | 3630 | 3820 |
| 2026-04-17 13:30 | 3.70 | 1010 | 3950 (1975) | 400 (1981) | 1830 | 458 | 552 | 730 | 867 | 1650 | 2860 | 3050 | 3630 | 3820 |
| 2026-04-17 12:30 | 3.64 | 976 | 3950 (1975) | 400 (1981) | 1830 | 458 | 552 | 730 | 867 | 1650 | 2860 | 3050 | 3630 | 3820 |
| 2026-04-17 11:30 | 3.57 | 938 | 3950 (1975) | 400 (1981) | 1830 | 458 | 552 | 730 | 867 | 1650 | 2860 | 3050 | 3630 | 3820 |
| 2026-04-17 10:30 | 3.50 | 899 | 3950 (1975) | 400 (1981) | 1830 | 458 | 552 | 730 | 867 | 1650 | 2860 | 3050 | 3630 | 3820 |
| 2026-04-17 09:30 | 3.48 | 889 | 3950 (1975) | 400 (1981) | 1830 | 458 | 552 | 730 | 867 | 1650 | 2860 | 3050 | 3630 | 3820 |
| 2026-04-17 08:30 | 3.47 | 883 | 3950 (1975) | 400 (1981) | 1830 | 458 | 552 | 730 | 867 | 1650 | 2860 | 3050 | 3630 | 3820 |
| 2026-04-17 07:30 | 3.47 | 883 | 3950 (1975) | 400 (1981) | 1830 | 458 | 552 | 730 | 867 | 1650 | 2860 | 3050 | 3630 | 3820 |
| 2026-04-17 06:30 | 3.47 | 883 | 3950 (1975) | 400 (1981) | 1830 | 458 | 552 | 730 | 867 | 1650 | 2860 | 3050 | 3630 | 3820 |
| 2026-04-17 05:30 | 3.47 | 883 | 3950 (1975) | 400 (1981) | 1830 | 458 | 552 | 730 | 867 | 1650 | 2860 | 3050 | 3630 | 3820 |
| 2026-04-17 04:30 | 3.46 | 878 | 3950 (1975) | 400 (1981) | 1830 | 458 | 552 | 730 | 867 | 1650 | 2860 | 3050 | 3630 | 3820 |
| 2026-04-17 03:30 | 3.46 | 878 | 3950 (1975) | 400 (1981) | 1830 | 458 | 552 | 730 | 867 | 1650 | 2860 | 3050 | 3630 | 3820 |
| 2026-04-17 02:30 | 3.46 | 878 | 3950 (1975) | 400 (1981) | 1830 | 458 | 552 | 730 | 867 | 1650 | 2860 | 3050 | 3630 | 3820 |
| 2026-04-17 01:30 | 3.43 | 862 | 3950 (1975) | 400 (1981) | 1830 | 458 | 552 | 730 | 867 | 1650 | 2860 | 3050 | 3630 | 3820 |
| 2026-04-17 00:30 | 3.40 | 846 | 3950 (1975) | 400 (1981) | 1830 | 458 | 552 | 730 | 867 | 1650 | 2860 | 3050 | 3630 | 3820 |
| 2026-04-16 23:30 | 3.35 | 820 | 3950 (1975) | 400 (1981) | 1830 | 458 | 552 | 730 | 867 | 1650 | 2860 | 3050 | 3630 | 3820 |
| 2026-04-16 22:30 | 3.27 | 779 | 4110 (1975) | 408 (1981) | 1780 | 484 | 554 | 684 | 811 | 1460 | 2810 | 3190 | 3630 | 3870 |
| 2026-04-16 21:30 | 3.23 | 758 | 4110 (1975) | 408 (1981) | 1780 | 484 | 554 | 684 | 811 | 1460 | 2810 | 3190 | 3630 | 3870 |
| 2026-04-16 20:30 | 3.15 | 718 | 4110 (1975) | 408 (1981) | 1780 | 484 | 554 | 684 | 811 | 1460 | 2810 | 3190 | 3630 | 3870 |
| 2026-04-16 19:30 | 3.07 | 679 | 4110 (1975) | 408 (1981) | 1780 | 484 | 554 | 684 | 811 | 1460 | 2810 | 3190 | 3630 | 3870 |
| 2026-04-16 18:30 | 2.95 | 623 | 4110 (1975) | 408 (1981) | 1780 | 484 | 554 | 684 | 811 | 1460 | 2810 | 3190 | 3630 | 3870 |
| 2026-04-16 17:30 | 2.87 | 587 | 4110 (1975) | 408 (1981) | 1780 | 484 | 554 | 684 | 811 | 1460 | 2810 | 3190 | 3630 | 3870 |
| 2026-04-16 16:30 | 2.85 | 578 | 4110 (1975) | 408 (1981) | 1780 | 484 | 554 | 684 | 811 | 1460 | 2810 | 3190 | 3630 | 3870 |
| 2026-04-16 15:30 | 2.82 | 564 | 4110 (1975) | 408 (1981) | 1780 | 484 | 554 | 684 | 811 | 1460 | 2810 | 3190 | 3630 | 3870 |
| 2026-04-16 14:30 | 2.81 | 560 | 4110 (1975) | 408 (1981) | 1780 | 484 | 554 | 684 | 811 | 1460 | 2810 | 3190 | 3630 | 3870 |
| 2026-04-16 13:30 | 2.81 | 560 | 4110 (1975) | 408 (1981) | 1780 | 484 | 554 | 684 | 811 | 1460 | 2810 | 3190 | 3630 | 3870 |
| 2026-04-16 12:30 | 2.81 | 560 | 4110 (1975) | 408 (1981) | 1780 | 484 | 554 | 684 | 811 | 1460 | 2810 | 3190 | 3630 | 3870 |
| 2026-04-16 11:30 | 2.81 | 560 | 4110 (1975) | 408 (1981) | 1780 | 484 | 554 | 684 | 811 | 1460 | 2810 | 3190 | 3630 | 3870 |
| 2026-04-16 10:30 | 2.81 | 560 | 4110 (1975) | 408 (1981) | 1780 | 484 | 554 | 684 | 811 | 1460 | 2810 | 3190 | 3630 | 3870 |
| 2026-04-16 09:30 | 2.82 | 564 | 4110 (1975) | 408 (1981) | 1780 | 484 | 554 | 684 | 811 | 1460 | 2810 | 3190 | 3630 | 3870 |
| 2026-04-16 08:30 | 2.82 | 564 | 4110 (1975) | 408 (1981) | 1780 | 484 | 554 | 684 | 811 | 1460 | 2810 | 3190 | 3630 | 3870 |
| 2026-04-16 07:30 | 2.83 | 569 | 4110 (1975) | 408 (1981) | 1780 | 484 | 554 | 684 | 811 | 1460 | 2810 | 3190 | 3630 | 3870 |
| 2026-04-16 06:30 | 2.83 | 569 | 4110 (1975) | 408 (1981) | 1780 | 484 | 554 | 684 | 811 | 1460 | 2810 | 3190 | 3630 | 3870 |
| 2026-04-16 05:30 | 2.83 | 569 | 4110 (1975) | 408 (1981) | 1780 | 484 | 554 | 684 | 811 | 1460 | 2810 | 3190 | 3630 | 3870 |
| 2026-04-16 04:30 | 2.83 | 569 | 4110 (1975) | 408 (1981) | 1780 | 484 | 554 | 684 | 811 | 1460 | 2810 | 3190 | 3630 | 3870 |
| 2026-04-16 03:30 | 2.83 | 569 | 4110 (1975) | 408 (1981) | 1780 | 484 | 554 | 684 | 811 | 1460 | 2810 | 3190 | 3630 | 3870 |
| 2026-04-16 02:30 | 2.81 | 560 | 4110 (1975) | 408 (1981) | 1780 | 484 | 554 | 684 | 811 | 1460 | 2810 | 3190 | 3630 | 3870 |
| 2026-04-16 01:30 | 2.80 | 556 | 4110 (1975) | 408 (1981) | 1780 | 484 | 554 | 684 | 811 | 1460 | 2810 | 3190 | 3630 | 3870 |
| 2026-04-16 00:30 | 2.80 | 556 | 4110 (1975) | 408 (1981) | 1780 | 484 | 554 | 684 | 811 | 1460 | 2810 | 3190 | 3630 | 3870 |
| 2026-04-15 23:30 | 2.80 | 556 | 4110 (1975) | 408 (1981) | 1780 | 484 | 554 | 684 | 811 | 1460 | 2810 | 3190 | 3630 | 3870 |
| 2026-04-15 22:30 | 2.80 | 556 | 4020 (1950) | 341 (1954) | 1760 | 417 | 487 | 779 | 866 | 1410 | 2840 | 2910 | 3620 | 3820 |
| 2026-04-15 21:30 | 2.80 | 556 | 4020 (1950) | 341 (1954) | 1760 | 417 | 487 | 779 | 866 | 1410 | 2840 | 2910 | 3620 | 3820 |
| 2026-04-15 20:30 | 2.80 | 556 | 4020 (1950) | 341 (1954) | 1760 | 417 | 487 | 779 | 866 | 1410 | 2840 | 2910 | 3620 | 3820 |
| 2026-04-15 19:30 | 2.81 | 560 | 4020 (1950) | 341 (1954) | 1760 | 417 | 487 | 779 | 866 | 1410 | 2840 | 2910 | 3620 | 3820 |
| 2026-04-15 18:30 | 2.80 | 556 | 4020 (1950) | 341 (1954) | 1760 | 417 | 487 | 779 | 866 | 1410 | 2840 | 2910 | 3620 | 3820 |
| 2026-04-15 17:30 | 2.79 | 551 | 4020 (1950) | 341 (1954) | 1760 | 417 | 487 | 779 | 866 | 1410 | 2840 | 2910 | 3620 | 3820 |
| 2026-04-15 16:30 | 2.79 | 551 | 4020 (1950) | 341 (1954) | 1760 | 417 | 487 | 779 | 866 | 1410 | 2840 | 2910 | 3620 | 3820 |
| 2026-04-15 15:30 | 2.79 | 551 | 4020 (1950) | 341 (1954) | 1760 | 417 | 487 | 779 | 866 | 1410 | 2840 | 2910 | 3620 | 3820 |
| 2026-04-15 14:30 | 2.78 | 547 | 4020 (1950) | 341 (1954) | 1760 | 417 | 487 | 779 | 866 | 1410 | 2840 | 2910 | 3620 | 3820 |
| 2026-04-15 13:30 | 2.78 | 547 | 4020 (1950) | 341 (1954) | 1760 | 417 | 487 | 779 | 866 | 1410 | 2840 | 2910 | 3620 | 3820 |
| 2026-04-15 12:30 | 2.78 | 547 | 4020 (1950) | 341 (1954) | 1760 | 417 | 487 | 779 | 866 | 1410 | 2840 | 2910 | 3620 | 3820 |
| 2026-04-15 11:30 | 2.78 | 547 | 4020 (1950) | 341 (1954) | 1760 | 417 | 487 | 779 | 866 | 1410 | 2840 | 2910 | 3620 | 3820 |
| 2026-04-15 10:30 | 2.78 | 547 | 4020 (1950) | 341 (1954) | 1760 | 417 | 487 | 779 | 866 | 1410 | 2840 | 2910 | 3620 | 3820 |
| 2026-04-15 09:30 | 2.78 | 547 | 4020 (1950) | 341 (1954) | 1760 | 417 | 487 | 779 | 866 | 1410 | 2840 | 2910 | 3620 | 3820 |
| 2026-04-15 08:30 | 2.79 | 551 | 4020 (1950) | 341 (1954) | 1760 | 417 | 487 | 779 | 866 | 1410 | 2840 | 2910 | 3620 | 3820 |
| 2026-04-15 07:30 | 2.78 | 547 | 4020 (1950) | 341 (1954) | 1760 | 417 | 487 | 779 | 866 | 1410 | 2840 | 2910 | 3620 | 3820 |
| 2026-04-15 06:30 | 2.79 | 551 | 4020 (1950) | 341 (1954) | 1760 | 417 | 487 | 779 | 866 | 1410 | 2840 | 2910 | 3620 | 3820 |
| 2026-04-15 05:30 | 2.78 | 547 | 4020 (1950) | 341 (1954) | 1760 | 417 | 487 | 779 | 866 | 1410 | 2840 | 2910 | 3620 | 3820 |
| 2026-04-15 04:30 | 2.78 | 547 | 4020 (1950) | 341 (1954) | 1760 | 417 | 487 | 779 | 866 | 1410 | 2840 | 2910 | 3620 | 3820 |
| 2026-04-15 03:30 | 2.78 | 547 | 4020 (1950) | 341 (1954) | 1760 | 417 | 487 | 779 | 866 | 1410 | 2840 | 2910 | 3620 | 3820 |
| 2026-04-15 02:30 | 2.79 | 551 | 4020 (1950) | 341 (1954) | 1760 | 417 | 487 | 779 | 866 | 1410 | 2840 | 2910 | 3620 | 3820 |
| 2026-04-15 01:30 | 2.79 | 551 | 4020 (1950) | 341 (1954) | 1760 | 417 | 487 | 779 | 866 | 1410 | 2840 | 2910 | 3620 | 3820 |
| 2026-04-15 00:30 | 2.78 | 547 | 4020 (1950) | 341 (1954) | 1760 | 417 | 487 | 779 | 866 | 1410 | 2840 | 2910 | 3620 | 3820 |
| 2026-04-14 23:30 | 2.78 | 547 | 4020 (1950) | 341 (1954) | 1760 | 417 | 487 | 779 | 866 | 1410 | 2840 | 2910 | 3620 | 3820 |
| 2026-04-14 22:30 | 2.78 | 547 | 3840 (1977) | 350 (1956) | 1790 | 420 | 480 | 606 | 799 | 1370 | 3030 | 3310 | 3560 | 3740 |
| 2026-04-14 21:30 | 2.79 | 551 | 3840 (1977) | 350 (1956) | 1790 | 420 | 480 | 606 | 799 | 1370 | 3030 | 3310 | 3560 | 3740 |
| 2026-04-14 20:30 | 2.78 | 547 | 3840 (1977) | 350 (1956) | 1790 | 420 | 480 | 606 | 799 | 1370 | 3030 | 3310 | 3560 | 3740 |
| 2026-04-14 19:30 | 2.79 | 551 | 3840 (1977) | 350 (1956) | 1790 | 420 | 480 | 606 | 799 | 1370 | 3030 | 3310 | 3560 | 3740 |
| 2026-04-14 18:30 | 2.79 | 551 | 3840 (1977) | 350 (1956) | 1790 | 420 | 480 | 606 | 799 | 1370 | 3030 | 3310 | 3560 | 3740 |
| 2026-04-14 17:30 | 2.79 | 551 | 3840 (1977) | 350 (1956) | 1790 | 420 | 480 | 606 | 799 | 1370 | 3030 | 3310 | 3560 | 3740 |
| 2026-04-14 16:30 | 2.79 | 551 | 3840 (1977) | 350 (1956) | 1790 | 420 | 480 | 606 | 799 | 1370 | 3030 | 3310 | 3560 | 3740 |
| 2026-04-14 15:30 | 2.78 | 547 | 3840 (1977) | 350 (1956) | 1790 | 420 | 480 | 606 | 799 | 1370 | 3030 | 3310 | 3560 | 3740 |
| 2026-04-14 14:30 | 2.78 | 547 | 3840 (1977) | 350 (1956) | 1790 | 420 | 480 | 606 | 799 | 1370 | 3030 | 3310 | 3560 | 3740 |
| 2026-04-14 13:30 | 2.78 | 547 | 3840 (1977) | 350 (1956) | 1790 | 420 | 480 | 606 | 799 | 1370 | 3030 | 3310 | 3560 | 3740 |
| 2026-04-14 12:30 | 2.78 | 547 | 3840 (1977) | 350 (1956) | 1790 | 420 | 480 | 606 | 799 | 1370 | 3030 | 3310 | 3560 | 3740 |
| 2026-04-14 11:30 | 2.80 | 556 | 3840 (1977) | 350 (1956) | 1790 | 420 | 480 | 606 | 799 | 1370 | 3030 | 3310 | 3560 | 3740 |
| 2026-04-14 09:30 | 2.79 | 551 | 3840 (1977) | 350 (1956) | 1790 | 420 | 480 | 606 | 799 | 1370 | 3030 | 3310 | 3560 | 3740 |
| 2026-04-14 08:30 | 2.80 | 556 | 3840 (1977) | 350 (1956) | 1790 | 420 | 480 | 606 | 799 | 1370 | 3030 | 3310 | 3560 | 3740 |
| 2026-04-14 07:30 | 2.80 | 556 | 3840 (1977) | 350 (1956) | 1790 | 420 | 480 | 606 | 799 | 1370 | 3030 | 3310 | 3560 | 3740 |
| 2026-04-14 06:30 | 2.79 | 551 | 3840 (1977) | 350 (1956) | 1790 | 420 | 480 | 606 | 799 | 1370 | 3030 | 3310 | 3560 | 3740 |
| 2026-04-14 05:30 | 2.79 | 551 | 3840 (1977) | 350 (1956) | 1790 | 420 | 480 | 606 | 799 | 1370 | 3030 | 3310 | 3560 | 3740 |
| 2026-04-14 04:30 | 2.80 | 556 | 3840 (1977) | 350 (1956) | 1790 | 420 | 480 | 606 | 799 | 1370 | 3030 | 3310 | 3560 | 3740 |
| 2026-04-14 03:30 | 2.79 | 551 | 3840 (1977) | 350 (1956) | 1790 | 420 | 480 | 606 | 799 | 1370 | 3030 | 3310 | 3560 | 3740 |
| 2026-04-14 02:30 | 2.79 | 551 | 3840 (1977) | 350 (1956) | 1790 | 420 | 480 | 606 | 799 | 1370 | 3030 | 3310 | 3560 | 3740 |
| 2026-04-14 01:30 | 2.79 | 551 | 3840 (1977) | 350 (1956) | 1790 | 420 | 480 | 606 | 799 | 1370 | 3030 | 3310 | 3560 | 3740 |
| 2026-04-14 00:30 | 2.79 | 551 | 3840 (1977) | 350 (1956) | 1790 | 420 | 480 | 606 | 799 | 1370 | 3030 | 3310 | 3560 | 3740 |
| 2026-04-13 23:30 | 2.80 | 556 | 3840 (1977) | 350 (1956) | 1790 | 420 | 480 | 606 | 799 | 1370 | 3030 | 3310 | 3560 | 3740 |
| 2026-04-13 22:30 | 2.79 | 551 | 3820 (2023) | 350 (1956) | 1710 | 433 | 458 | 578 | 642 | 1360 | 2640 | 3120 | 3620 | 3770 |
| 2026-04-13 21:30 | 2.80 | 556 | 3820 (2023) | 350 (1956) | 1710 | 433 | 458 | 578 | 642 | 1360 | 2640 | 3120 | 3620 | 3770 |
| 2026-04-13 20:30 | 2.79 | 551 | 3820 (2023) | 350 (1956) | 1710 | 433 | 458 | 578 | 642 | 1360 | 2640 | 3120 | 3620 | 3770 |
| 2026-04-13 19:30 | 2.80 | 556 | 3820 (2023) | 350 (1956) | 1710 | 433 | 458 | 578 | 642 | 1360 | 2640 | 3120 | 3620 | 3770 |
| 2026-04-13 18:30 | 2.79 | 551 | 3820 (2023) | 350 (1956) | 1710 | 433 | 458 | 578 | 642 | 1360 | 2640 | 3120 | 3620 | 3770 |
| 2026-04-13 17:30 | 2.80 | 556 | 3820 (2023) | 350 (1956) | 1710 | 433 | 458 | 578 | 642 | 1360 | 2640 | 3120 | 3620 | 3770 |
| 2026-04-13 16:30 | 2.79 | 551 | 3820 (2023) | 350 (1956) | 1710 | 433 | 458 | 578 | 642 | 1360 | 2640 | 3120 | 3620 | 3770 |
| 2026-04-13 15:30 | 2.80 | 556 | 3820 (2023) | 350 (1956) | 1710 | 433 | 458 | 578 | 642 | 1360 | 2640 | 3120 | 3620 | 3770 |
| 2026-04-13 14:30 | 2.80 | 556 | 3820 (2023) | 350 (1956) | 1710 | 433 | 458 | 578 | 642 | 1360 | 2640 | 3120 | 3620 | 3770 |
| 2026-04-13 13:30 | 2.79 | 551 | 3820 (2023) | 350 (1956) | 1710 | 433 | 458 | 578 | 642 | 1360 | 2640 | 3120 | 3620 | 3770 |
| 2026-04-13 12:30 | 2.80 | 556 | 3820 (2023) | 350 (1956) | 1710 | 433 | 458 | 578 | 642 | 1360 | 2640 | 3120 | 3620 | 3770 |
| 2026-04-13 11:30 | 2.80 | 556 | 3820 (2023) | 350 (1956) | 1710 | 433 | 458 | 578 | 642 | 1360 | 2640 | 3120 | 3620 | 3770 |
| 2026-04-13 10:30 | 2.79 | 551 | 3820 (2023) | 350 (1956) | 1710 | 433 | 458 | 578 | 642 | 1360 | 2640 | 3120 | 3620 | 3770 |
| 2026-04-13 09:30 | 2.81 | 560 | 3820 (2023) | 350 (1956) | 1710 | 433 | 458 | 578 | 642 | 1360 | 2640 | 3120 | 3620 | 3770 |
| 2026-04-13 08:30 | 2.79 | 551 | 3820 (2023) | 350 (1956) | 1710 | 433 | 458 | 578 | 642 | 1360 | 2640 | 3120 | 3620 | 3770 |
| 2026-04-13 07:30 | 2.79 | 551 | 3820 (2023) | 350 (1956) | 1710 | 433 | 458 | 578 | 642 | 1360 | 2640 | 3120 | 3620 | 3770 |
| 2026-04-13 06:30 | 2.80 | 556 | 3820 (2023) | 350 (1956) | 1710 | 433 | 458 | 578 | 642 | 1360 | 2640 | 3120 | 3620 | 3770 |
| 2026-04-13 05:30 | 2.80 | 556 | 3820 (2023) | 350 (1956) | 1710 | 433 | 458 | 578 | 642 | 1360 | 2640 | 3120 | 3620 | 3770 |
| 2026-04-13 04:30 | 2.80 | 556 | 3820 (2023) | 350 (1956) | 1710 | 433 | 458 | 578 | 642 | 1360 | 2640 | 3120 | 3620 | 3770 |
| 2026-04-13 03:30 | 2.80 | 556 | 3820 (2023) | 350 (1956) | 1710 | 433 | 458 | 578 | 642 | 1360 | 2640 | 3120 | 3620 | 3770 |
| 2026-04-13 02:30 | 2.79 | 551 | 3820 (2023) | 350 (1956) | 1710 | 433 | 458 | 578 | 642 | 1360 | 2640 | 3120 | 3620 | 3770 |
| 2026-04-13 01:30 | 2.80 | 556 | 3820 (2023) | 350 (1956) | 1710 | 433 | 458 | 578 | 642 | 1360 | 2640 | 3120 | 3620 | 3770 |
| 2026-04-13 00:30 | 2.80 | 556 | 3820 (2023) | 350 (1956) | 1710 | 433 | 458 | 578 | 642 | 1360 | 2640 | 3120 | 3620 | 3770 |
| 2026-04-12 23:30 | 2.80 | 556 | 3820 (2023) | 350 (1956) | 1710 | 433 | 458 | 578 | 642 | 1360 | 2640 | 3120 | 3620 | 3770 |
| 2026-04-12 22:30 | 2.80 | 556 | 3860 (1975) | 350 (1956) | 1760 | 420 | 481 | 549 | 656 | 1330 | 3060 | 3200 | 3590 | 3710 |
| 2026-04-12 21:30 | 2.80 | 556 | 3860 (1975) | 350 (1956) | 1760 | 420 | 481 | 549 | 656 | 1330 | 3060 | 3200 | 3590 | 3710 |
| 2026-04-12 20:30 | 2.81 | 560 | 3860 (1975) | 350 (1956) | 1760 | 420 | 481 | 549 | 656 | 1330 | 3060 | 3200 | 3590 | 3710 |
| 2026-04-12 19:30 | 2.80 | 556 | 3860 (1975) | 350 (1956) | 1760 | 420 | 481 | 549 | 656 | 1330 | 3060 | 3200 | 3590 | 3710 |
| 2026-04-12 18:30 | 2.80 | 556 | 3860 (1975) | 350 (1956) | 1760 | 420 | 481 | 549 | 656 | 1330 | 3060 | 3200 | 3590 | 3710 |
| 2026-04-12 17:30 | 2.79 | 551 | 3860 (1975) | 350 (1956) | 1760 | 420 | 481 | 549 | 656 | 1330 | 3060 | 3200 | 3590 | 3710 |
| 2026-04-12 16:30 | 2.79 | 551 | 3860 (1975) | 350 (1956) | 1760 | 420 | 481 | 549 | 656 | 1330 | 3060 | 3200 | 3590 | 3710 |
| 2026-04-12 15:30 | 2.81 | 560 | 3860 (1975) | 350 (1956) | 1760 | 420 | 481 | 549 | 656 | 1330 | 3060 | 3200 | 3590 | 3710 |
| 2026-04-12 14:30 | 2.81 | 560 | 3860 (1975) | 350 (1956) | 1760 | 420 | 481 | 549 | 656 | 1330 | 3060 | 3200 | 3590 | 3710 |
| 2026-04-12 13:30 | 2.79 | 551 | 3860 (1975) | 350 (1956) | 1760 | 420 | 481 | 549 | 656 | 1330 | 3060 | 3200 | 3590 | 3710 |
| 2026-04-12 12:30 | 2.80 | 556 | 3860 (1975) | 350 (1956) | 1760 | 420 | 481 | 549 | 656 | 1330 | 3060 | 3200 | 3590 | 3710 |
| 2026-04-12 11:30 | 2.80 | 556 | 3860 (1975) | 350 (1956) | 1760 | 420 | 481 | 549 | 656 | 1330 | 3060 | 3200 | 3590 | 3710 |
| 2026-04-12 10:30 | 2.80 | 556 | 3860 (1975) | 350 (1956) | 1760 | 420 | 481 | 549 | 656 | 1330 | 3060 | 3200 | 3590 | 3710 |
| 2026-04-12 09:30 | 2.81 | 560 | 3860 (1975) | 350 (1956) | 1760 | 420 | 481 | 549 | 656 | 1330 | 3060 | 3200 | 3590 | 3710 |
| 2026-04-12 08:30 | 2.80 | 556 | 3860 (1975) | 350 (1956) | 1760 | 420 | 481 | 549 | 656 | 1330 | 3060 | 3200 | 3590 | 3710 |
| 2026-04-12 07:30 | 2.80 | 556 | 3860 (1975) | 350 (1956) | 1760 | 420 | 481 | 549 | 656 | 1330 | 3060 | 3200 | 3590 | 3710 |
| 2026-04-12 06:30 | 2.81 | 560 | 3860 (1975) | 350 (1956) | 1760 | 420 | 481 | 549 | 656 | 1330 | 3060 | 3200 | 3590 | 3710 |
| 2026-04-12 05:30 | 2.80 | 556 | 3860 (1975) | 350 (1956) | 1760 | 420 | 481 | 549 | 656 | 1330 | 3060 | 3200 | 3590 | 3710 |
| 2026-04-12 04:30 | 2.80 | 556 | 3860 (1975) | 350 (1956) | 1760 | 420 | 481 | 549 | 656 | 1330 | 3060 | 3200 | 3590 | 3710 |
| 2026-04-12 03:30 | 2.80 | 556 | 3860 (1975) | 350 (1956) | 1760 | 420 | 481 | 549 | 656 | 1330 | 3060 | 3200 | 3590 | 3710 |
| 2026-04-12 02:30 | 2.81 | 560 | 3860 (1975) | 350 (1956) | 1760 | 420 | 481 | 549 | 656 | 1330 | 3060 | 3200 | 3590 | 3710 |
| 2026-04-12 01:30 | 2.81 | 560 | 3860 (1975) | 350 (1956) | 1760 | 420 | 481 | 549 | 656 | 1330 | 3060 | 3200 | 3590 | 3710 |
| 2026-04-12 00:30 | 2.80 | 556 | 3860 (1975) | 350 (1956) | 1760 | 420 | 481 | 549 | 656 | 1330 | 3060 | 3200 | 3590 | 3710 |
| 2026-04-11 23:30 | 2.81 | 560 | 3860 (1975) | 350 (1956) | 1760 | 420 | 481 | 549 | 656 | 1330 | 3060 | 3200 | 3590 | 3710 |
| 2026-04-11 22:30 | 2.80 | 556 | 3870 (1975) | 353 (1966) | 1740 | 401 | 510 | 606 | 722 | 1220 | 2950 | 3260 | 3560 | 3770 |
| 2026-04-11 21:30 | 2.81 | 560 | 3870 (1975) | 353 (1966) | 1740 | 401 | 510 | 606 | 722 | 1220 | 2950 | 3260 | 3560 | 3770 |
| 2026-04-11 20:30 | 2.81 | 560 | 3870 (1975) | 353 (1966) | 1740 | 401 | 510 | 606 | 722 | 1220 | 2950 | 3260 | 3560 | 3770 |
| 2026-04-11 19:30 | 2.81 | 560 | 3870 (1975) | 353 (1966) | 1740 | 401 | 510 | 606 | 722 | 1220 | 2950 | 3260 | 3560 | 3770 |
| 2026-04-11 18:30 | 2.82 | 564 | 3870 (1975) | 353 (1966) | 1740 | 401 | 510 | 606 | 722 | 1220 | 2950 | 3260 | 3560 | 3770 |
| 2026-04-11 17:30 | 2.81 | 560 | 3870 (1975) | 353 (1966) | 1740 | 401 | 510 | 606 | 722 | 1220 | 2950 | 3260 | 3560 | 3770 |
| 2026-04-11 16:30 | 2.82 | 564 | 3870 (1975) | 353 (1966) | 1740 | 401 | 510 | 606 | 722 | 1220 | 2950 | 3260 | 3560 | 3770 |
| 2026-04-11 15:30 | 2.81 | 560 | 3870 (1975) | 353 (1966) | 1740 | 401 | 510 | 606 | 722 | 1220 | 2950 | 3260 | 3560 | 3770 |
| 2026-04-11 14:30 | 2.82 | 564 | 3870 (1975) | 353 (1966) | 1740 | 401 | 510 | 606 | 722 | 1220 | 2950 | 3260 | 3560 | 3770 |
| 2026-04-11 13:30 | 2.82 | 564 | 3870 (1975) | 353 (1966) | 1740 | 401 | 510 | 606 | 722 | 1220 | 2950 | 3260 | 3560 | 3770 |
| 2026-04-11 12:30 | 2.82 | 564 | 3870 (1975) | 353 (1966) | 1740 | 401 | 510 | 606 | 722 | 1220 | 2950 | 3260 | 3560 | 3770 |
| 2026-04-11 11:30 | 2.82 | 564 | 3870 (1975) | 353 (1966) | 1740 | 401 | 510 | 606 | 722 | 1220 | 2950 | 3260 | 3560 | 3770 |
| 2026-04-11 10:30 | 2.82 | 564 | 3870 (1975) | 353 (1966) | 1740 | 401 | 510 | 606 | 722 | 1220 | 2950 | 3260 | 3560 | 3770 |
| 2026-04-11 09:30 | 2.83 | 569 | 3870 (1975) | 353 (1966) | 1740 | 401 | 510 | 606 | 722 | 1220 | 2950 | 3260 | 3560 | 3770 |
| 2026-04-11 08:30 | 2.82 | 564 | 3870 (1975) | 353 (1966) | 1740 | 401 | 510 | 606 | 722 | 1220 | 2950 | 3260 | 3560 | 3770 |
| 2026-04-11 07:30 | 2.82 | 564 | 3870 (1975) | 353 (1966) | 1740 | 401 | 510 | 606 | 722 | 1220 | 2950 | 3260 | 3560 | 3770 |
| 2026-04-11 06:30 | 2.83 | 569 | 3870 (1975) | 353 (1966) | 1740 | 401 | 510 | 606 | 722 | 1220 | 2950 | 3260 | 3560 | 3770 |
| 2026-04-11 05:30 | 2.83 | 569 | 3870 (1975) | 353 (1966) | 1740 | 401 | 510 | 606 | 722 | 1220 | 2950 | 3260 | 3560 | 3770 |
| 2026-04-11 04:30 | 2.83 | 569 | 3870 (1975) | 353 (1966) | 1740 | 401 | 510 | 606 | 722 | 1220 | 2950 | 3260 | 3560 | 3770 |
| 2026-04-11 03:30 | 2.82 | 564 | 3870 (1975) | 353 (1966) | 1740 | 401 | 510 | 606 | 722 | 1220 | 2950 | 3260 | 3560 | 3770 |
| 2026-04-11 02:30 | 2.83 | 569 | 3870 (1975) | 353 (1966) | 1740 | 401 | 510 | 606 | 722 | 1220 | 2950 | 3260 | 3560 | 3770 |
| 2026-04-11 01:30 | 2.82 | 564 | 3870 (1975) | 353 (1966) | 1740 | 401 | 510 | 606 | 722 | 1220 | 2950 | 3260 | 3560 | 3770 |
| 2026-04-11 00:30 | 2.83 | 569 | 3870 (1975) | 353 (1966) | 1740 | 401 | 510 | 606 | 722 | 1220 | 2950 | 3260 | 3560 | 3770 |
| 2026-04-10 23:30 | 2.83 | 569 | 3870 (1975) | 353 (1966) | 1740 | 401 | 510 | 606 | 722 | 1220 | 2950 | 3260 | 3560 | 3770 |
| 2026-04-10 22:30 | 2.84 | 573 | 7010 (2008) | 346 (1966) | 1820 | 395 | 533 | 668 | 715 | 1360 | 2950 | 3330 | 3590 | 3750 |
| 2026-04-10 21:30 | 2.84 | 573 | 7010 (2008) | 346 (1966) | 1820 | 395 | 533 | 668 | 715 | 1360 | 2950 | 3330 | 3590 | 3750 |
| 2026-04-10 20:30 | 2.83 | 569 | 7010 (2008) | 346 (1966) | 1820 | 395 | 533 | 668 | 715 | 1360 | 2950 | 3330 | 3590 | 3750 |
| 2026-04-10 19:30 | 2.83 | 569 | 7010 (2008) | 346 (1966) | 1820 | 395 | 533 | 668 | 715 | 1360 | 2950 | 3330 | 3590 | 3750 |
| 2026-04-10 18:30 | 2.82 | 564 | 7010 (2008) | 346 (1966) | 1820 | 395 | 533 | 668 | 715 | 1360 | 2950 | 3330 | 3590 | 3750 |
| 2026-04-10 17:30 | 2.83 | 569 | 7010 (2008) | 346 (1966) | 1820 | 395 | 533 | 668 | 715 | 1360 | 2950 | 3330 | 3590 | 3750 |
| 2026-04-10 16:30 | 2.82 | 564 | 7010 (2008) | 346 (1966) | 1820 | 395 | 533 | 668 | 715 | 1360 | 2950 | 3330 | 3590 | 3750 |
| 2026-04-10 15:30 | 2.83 | 569 | 7010 (2008) | 346 (1966) | 1820 | 395 | 533 | 668 | 715 | 1360 | 2950 | 3330 | 3590 | 3750 |
| 2026-04-10 14:30 | 2.83 | 569 | 7010 (2008) | 346 (1966) | 1820 | 395 | 533 | 668 | 715 | 1360 | 2950 | 3330 | 3590 | 3750 |
| 2026-04-10 13:30 | 2.83 | 569 | 7010 (2008) | 346 (1966) | 1820 | 395 | 533 | 668 | 715 | 1360 | 2950 | 3330 | 3590 | 3750 |
| 2026-04-10 12:30 | 2.82 | 564 | 7010 (2008) | 346 (1966) | 1820 | 395 | 533 | 668 | 715 | 1360 | 2950 | 3330 | 3590 | 3750 |
| 2026-04-10 11:30 | 2.82 | 564 | 7010 (2008) | 346 (1966) | 1820 | 395 | 533 | 668 | 715 | 1360 | 2950 | 3330 | 3590 | 3750 |
| 2026-04-10 10:30 | 2.84 | 573 | 7010 (2008) | 346 (1966) | 1820 | 395 | 533 | 668 | 715 | 1360 | 2950 | 3330 | 3590 | 3750 |
| 2026-04-10 09:30 | 2.84 | 573 | 7010 (2008) | 346 (1966) | 1820 | 395 | 533 | 668 | 715 | 1360 | 2950 | 3330 | 3590 | 3750 |
| 2026-04-10 08:30 | 2.84 | 573 | 7010 (2008) | 346 (1966) | 1820 | 395 | 533 | 668 | 715 | 1360 | 2950 | 3330 | 3590 | 3750 |
| 2026-04-10 07:30 | 2.84 | 573 | 7010 (2008) | 346 (1966) | 1820 | 395 | 533 | 668 | 715 | 1360 | 2950 | 3330 | 3590 | 3750 |
| 2026-04-10 06:30 | 2.84 | 573 | 7010 (2008) | 346 (1966) | 1820 | 395 | 533 | 668 | 715 | 1360 | 2950 | 3330 | 3590 | 3750 |
| 2026-04-10 05:30 | 2.84 | 573 | 7010 (2008) | 346 (1966) | 1820 | 395 | 533 | 668 | 715 | 1360 | 2950 | 3330 | 3590 | 3750 |
| 2026-04-10 04:30 | 2.85 | 578 | 7010 (2008) | 346 (1966) | 1820 | 395 | 533 | 668 | 715 | 1360 | 2950 | 3330 | 3590 | 3750 |
| 2026-04-10 03:30 | 2.86 | 582 | 7010 (2008) | 346 (1966) | 1820 | 395 | 533 | 668 | 715 | 1360 | 2950 | 3330 | 3590 | 3750 |
| 2026-04-10 02:30 | 2.87 | 587 | 7010 (2008) | 346 (1966) | 1820 | 395 | 533 | 668 | 715 | 1360 | 2950 | 3330 | 3590 | 3750 |
| 2026-04-10 01:30 | 2.86 | 582 | 7010 (2008) | 346 (1966) | 1820 | 395 | 533 | 668 | 715 | 1360 | 2950 | 3330 | 3590 | 3750 |
| 2026-04-10 00:30 | 2.87 | 587 | 7010 (2008) | 346 (1966) | 1820 | 395 | 533 | 668 | 715 | 1360 | 2950 | 3330 | 3590 | 3750 |
| 2026-04-09 23:30 | 2.88 | 591 | 7010 (2008) | 346 (1966) | 1820 | 395 | 533 | 668 | 715 | 1360 | 2950 | 3330 | 3590 | 3750 |
A total of 737 rows are displayed for years 1949 through 2025.